Provisional Data: Susquehanna River near Binghamton, NY


Please select a monitoring station.
Please select start date.
Please select start date.

Toggle Unit: C/F Toggle Unit: C/F
Sample Time Temperature (C) Temperature (F) Specific Conductivity (mS/cm) pH   Turbidity (NTU+) DO (mg/L)
8/9/2021 12:00:00 AM 8.2931 6.8794
8/9/2021 12:15:00 AM 8.2702 6.7793
8/9/2021 12:30:00 AM 8.247 6.7229
8/9/2021 12:45:00 AM 8.2257 6.9849
8/9/2021 1:00:00 AM 8.2015 6.7792
8/9/2021 1:15:00 AM 8.1772 7.199
8/9/2021 1:30:00 AM 8.1423 7.3052
8/9/2021 1:45:00 AM 8.1042 7.101
8/9/2021 2:00:00 AM 8.0488 7.0082
8/9/2021 2:15:00 AM 8.0005 7.1492
8/9/2021 2:30:00 AM 7.9501 7.6799
8/9/2021 2:45:00 AM 7.931 7.7999
8/9/2021 3:00:00 AM 7.8714 7.9592
8/9/2021 3:15:00 AM 7.8302 8.2779
8/9/2021 3:30:00 AM 7.7861 8.67
8/9/2021 3:45:00 AM 7.7303 8.5167
8/9/2021 4:00:00 AM 7.6616 8.597
8/9/2021 4:15:00 AM 7.6356 7.7823
8/9/2021 4:30:00 AM 7.5941 6.423
8/9/2021 4:45:00 AM 7.5433 6.3787
8/9/2021 5:00:00 AM 7.499 6.5684
8/9/2021 5:15:00 AM 7.4609 6.5089
8/9/2021 5:30:00 AM 7.4286 6.5549
8/9/2021 5:45:00 AM 7.4158 6.9
8/9/2021 6:00:00 AM 7.3673 7.42
8/9/2021 6:15:00 AM 7.3436 7.0975
8/9/2021 6:30:00 AM 7.3273 7.049
8/9/2021 6:45:00 AM 7.3069 7.3881
8/9/2021 7:00:00 AM 7.2445 7.1253
8/9/2021 7:15:00 AM 7.2296 6.2688
8/9/2021 7:30:00 AM 7.2182 5.6142
8/9/2021 7:45:00 AM 7.2071 5.4888
8/9/2021 8:00:00 AM 7.1979 5.3112
8/9/2021 8:15:00 AM 7.19 5.1443
8/9/2021 8:30:00 AM 7.187 5.126
8/9/2021 8:45:00 AM 7.1876 5.1999
8/9/2021 9:00:00 AM 7.178 5.0173
8/9/2021 9:15:00 AM 7.1786 5.1876
8/9/2021 9:30:00 AM 7.1848 6.011
8/9/2021 9:45:00 AM 7.1956 5.8196
8/9/2021 10:00:00 AM 7.2015 5.171
8/9/2021 10:15:00 AM 7.2021 5.1514
8/9/2021 10:30:00 AM 7.206 4.8352
8/9/2021 10:45:00 AM 7.2109 4.8278
8/9/2021 11:00:00 AM 7.2183 4.6823
8/9/2021 11:15:00 AM 7.2314 4.5797
8/9/2021 11:30:00 AM 7.2431 4.57
8/9/2021 11:45:00 AM 7.2534 4.6
8/9/2021 12:00:00 PM 7.2749 4.4443
8/9/2021 12:15:00 PM 7.2886 4.4582
8/9/2021 12:30:00 PM 7.3024 4.5176
8/9/2021 12:45:00 PM 7.3155 4.5059
8/9/2021 1:00:00 PM 7.3313 4.4455
8/9/2021 1:15:00 PM 7.3492 4.3113
8/9/2021 1:30:00 PM 7.3712 4.3707
8/9/2021 1:45:00 PM 7.3974 4.7457
8/9/2021 2:00:00 PM 7.4327 4.6193
8/9/2021 2:15:00 PM 7.462 4.4518
8/9/2021 2:30:00 PM 7.4851 4.1926
8/9/2021 2:45:00 PM 7.5156 4.1584
8/9/2021 3:00:00 PM 7.5463 4.1522
8/9/2021 3:15:00 PM 7.5801 4.1562
8/9/2021 3:30:00 PM 7.6148 4.2442
8/9/2021 3:45:00 PM 7.6451 4.3152
8/9/2021 4:00:00 PM 7.6689 4.2861
8/9/2021 4:15:00 PM 7.6966 4.3731
8/9/2021 4:30:00 PM 7.7261 4.3701
8/9/2021 4:45:00 PM 7.7567 4.4675
8/9/2021 5:00:00 PM 7.7827 4.3428
8/9/2021 5:15:00 PM 7.8141 4.3476
8/9/2021 5:30:00 PM 7.8457 4.3754
8/9/2021 5:45:00 PM 7.8568 4.5
8/9/2021 6:00:00 PM 7.8821 7.207
8/9/2021 6:15:00 PM 7.8719 10.396
8/9/2021 6:30:00 PM 7.9357 7.537
8/9/2021 6:45:00 PM 7.9699 6.4437
8/9/2021 7:00:00 PM 7.9886 6.1428
8/9/2021 7:15:00 PM 8.001 5.8759
8/9/2021 7:30:00 PM 8.0112 5.6457
8/9/2021 7:45:00 PM 8.0198 6.1075
8/9/2021 8:00:00 PM 8.0207 7.0009
8/9/2021 8:15:00 PM 8.0208 7.43
8/9/2021 8:30:00 PM 8.0254 5.9957
8/9/2021 8:45:00 PM 8.0234 6
8/9/2021 9:00:00 PM 8.0312 5.8935
8/9/2021 9:15:00 PM 8.0313 5.937
8/9/2021 9:30:00 PM 8.0313 5.9653
8/9/2021 9:45:00 PM 8.0308 5.9334
8/9/2021 10:00:00 PM 8.0265 5.9815
8/9/2021 10:15:00 PM 8.0239 5.9574
8/9/2021 10:30:00 PM 8.02 6.0662
8/9/2021 10:45:00 PM 8.0129 6.1897
8/9/2021 11:00:00 PM 8.0057 6.4255
8/9/2021 11:15:00 PM 7.9977 6.5144
8/9/2021 11:30:00 PM 7.9872 6.7024
8/9/2021 11:45:00 PM 7.9842 6.8
8/10/2021 12:00:00 AM 7.9627 6.9466
8/10/2021 12:15:00 AM 7.9526 7.2193
8/10/2021 12:30:00 AM 7.9371 7.1462
8/10/2021 12:45:00 AM 7.9209 7.1807
8/10/2021 1:00:00 AM 7.9043 7.2623
8/10/2021 1:15:00 AM 7.8812 7.4759
8/10/2021 1:30:00 AM 7.8595 7.7102
8/10/2021 1:45:00 AM 7.8389 7.4321
8/10/2021 2:00:00 AM 7.8166 7.8478
8/10/2021 2:15:00 AM 7.7922 7.4813
8/10/2021 2:30:00 AM 7.7637 7.3921
8/10/2021 2:45:00 AM 7.7434 7.2998
8/10/2021 3:00:00 AM 7.7032 7.2758
8/10/2021 3:15:00 AM 7.6906 6.2048
8/10/2021 3:30:00 AM 7.6583 5.9383
8/10/2021 3:45:00 AM 7.6239 5.9166
8/10/2021 4:00:00 AM 7.5912 5.9876
8/10/2021 4:15:00 AM 7.556 5.9895
8/10/2021 4:30:00 AM 7.5237 6.0466
8/10/2021 4:45:00 AM 7.4976 6.2609
8/10/2021 5:00:00 AM 7.4638 6.3203
8/10/2021 5:15:00 AM 7.4281 6.1917
8/10/2021 5:30:00 AM 7.4001 6.2181
8/10/2021 5:45:00 AM 7.3878 6.4
8/10/2021 6:00:00 AM 7.3408 6.2299
8/10/2021 6:15:00 AM 7.3134 5.9413
8/10/2021 6:30:00 AM 7.2877 5.622
8/10/2021 6:45:00 AM 7.2636 6.3948
8/10/2021 7:00:00 AM 7.2433 5.802
8/10/2021 7:15:00 AM 7.22 5.9666
8/10/2021 7:30:00 AM 7.1996 6.8396
8/10/2021 7:45:00 AM 7.1815 6.3961
8/10/2021 8:00:00 AM 7.1671 5.6799
8/10/2021 8:15:00 AM 7.1562 5.3762
8/10/2021 8:30:00 AM 7.1485 5.0475
8/10/2021 8:45:00 AM 7.1414 5.1
8/10/2021 9:00:00 AM 7.1361 4.727
8/10/2021 9:15:00 AM 7.1355 4.5579
8/10/2021 9:30:00 AM 7.1372 5.8636
8/10/2021 9:45:00 AM 7.1383 4.9723
8/10/2021 10:00:00 AM 7.1446 4.4808
8/10/2021 10:15:00 AM 7.1514 4.3629
8/10/2021 10:30:00 AM 7.1521 4.2946
8/10/2021 10:45:00 AM 7.1505 4.3612
8/10/2021 11:00:00 AM 7.1524 4.5503
8/10/2021 11:15:00 AM 7.1586 4.4083
8/10/2021 11:30:00 AM 7.1651 4.3984
8/10/2021 11:45:00 AM 7.1694 4.4
8/10/2021 12:00:00 PM 7.1859 4.3586
8/10/2021 12:15:00 PM 7.1943 4.4231
8/10/2021 12:30:00 PM 7.2101 4.6326
8/10/2021 12:45:00 PM 7.2325 4.6636
8/10/2021 1:00:00 PM 7.2438 4.5232
8/10/2021 1:15:00 PM 7.2496 4.2427
8/10/2021 1:30:00 PM 7.263 4.1401
8/10/2021 1:45:00 PM 7.2791 4.2315
8/10/2021 2:00:00 PM 7.299 4.2588
8/10/2021 2:15:00 PM 7.3169 4.5561
8/10/2021 2:30:00 PM 7.3389 5.0892
8/10/2021 2:45:00 PM 7.3698 5.1113
8/10/2021 3:00:00 PM 7.3915 4.8217
8/10/2021 3:15:00 PM 7.4175 4.7247
8/10/2021 3:30:00 PM 7.4421 4.6202
8/10/2021 3:45:00 PM 7.4734 4.7384
8/10/2021 4:00:00 PM 7.5138 5.2079
8/10/2021 4:15:00 PM 7.5425 5.2993
8/10/2021 4:30:00 PM 7.563 5.0181
8/10/2021 4:45:00 PM 7.5887 4.9116
8/10/2021 5:00:00 PM 7.6139 5.0092
8/10/2021 5:15:00 PM 7.6369 4.8887
8/10/2021 5:30:00 PM 7.6619 4.794
8/10/2021 5:45:00 PM 7.6762 4.9
8/10/2021 6:00:00 PM 7.7112 4.9408
8/10/2021 6:15:00 PM 7.7262 4.6446
8/10/2021 6:30:00 PM 7.7493 4.8228
8/10/2021 6:45:00 PM 7.7664 4.5973
8/10/2021 7:00:00 PM 7.7587 6.1594
8/10/2021 7:15:00 PM 7.7754 8.6222
8/10/2021 7:30:00 PM 7.8202 6.732
8/10/2021 7:45:00 PM 7.825 8.0929
8/10/2021 8:00:00 PM 7.8211 8.449
8/10/2021 8:15:00 PM 7.8291 6.2471
8/10/2021 8:30:00 PM 7.837 5.7249
8/10/2021 8:45:00 PM 7.8386 6.1
8/10/2021 9:00:00 PM 7.8398 5.7929
8/10/2021 9:15:00 PM 7.8439 5.8054
8/10/2021 9:30:00 PM 7.8407 5.8226
8/10/2021 9:45:00 PM 7.839 5.9219
8/10/2021 10:00:00 PM 7.8385 5.9247
8/10/2021 10:15:00 PM 7.8334 5.9718
8/10/2021 10:30:00 PM 7.8292 6.3047
8/10/2021 10:45:00 PM 7.8226 6.1872
8/10/2021 11:00:00 PM 7.8166 6.1904
8/10/2021 11:15:00 PM 7.8121 5.9667
8/10/2021 11:30:00 PM 7.8023 5.8873
8/10/2021 11:45:00 PM 7.7994 6
8/11/2021 12:00:00 AM 7.7808 6.2637
8/11/2021 12:15:00 AM 7.7686 6.5894
8/11/2021 12:30:00 AM 7.7524 6.5607
8/11/2021 12:45:00 AM 7.7377 7.0467
8/11/2021 1:00:00 AM 7.7226 7.1291
8/11/2021 1:15:00 AM 7.7043 7.4435
8/11/2021 1:30:00 AM 7.6864 7.2886
8/11/2021 1:45:00 AM 7.6648 7.3492
8/11/2021 2:00:00 AM 7.6402 7.2599
8/11/2021 2:15:00 AM 7.6131 7.1371
8/11/2021 2:30:00 AM 7.5855 6.8143
8/11/2021 2:45:00 AM 7.5768 6.6999
8/11/2021 3:00:00 AM 7.5306 6.9521
8/11/2021 3:15:00 AM 7.5086 5.872
8/11/2021 3:30:00 AM 7.4766 5.5641
8/11/2021 3:45:00 AM 7.4437 5.318
8/11/2021 4:00:00 AM 7.4129 5.3637
8/11/2021 4:15:00 AM 7.3828 5.3779
8/11/2021 4:30:00 AM 7.3555 5.4824
8/11/2021 4:45:00 AM 7.327 5.2878
8/11/2021 5:00:00 AM 7.2976 5.3699
8/11/2021 5:15:00 AM 7.2688 5.4474
8/11/2021 5:30:00 AM 7.2431 5.2588
8/11/2021 5:45:00 AM 7.2296 5.4
8/11/2021 6:00:00 AM 7.2014 5.8443
8/11/2021 6:15:00 AM 7.1799 5.4372
8/11/2021 6:30:00 AM 7.1594 4.9169
8/11/2021 6:45:00 AM 7.1441 4.8179
8/11/2021 7:00:00 AM 7.1258 4.7337
8/11/2021 7:15:00 AM 7.1101 4.6678
8/11/2021 7:30:00 AM 7.0957 4.5877
8/11/2021 7:45:00 AM 7.0856 4.5064
8/11/2021 8:00:00 AM 7.0746 4.4413
8/11/2021 8:15:00 AM 7.0656 4.4309
8/11/2021 8:30:00 AM 7.0619 4.4314
8/11/2021 8:45:00 AM 7.0588 4.4
8/11/2021 9:00:00 AM 7.0575 4.275
8/11/2021 9:15:00 AM 7.0519 4.2983
8/11/2021 9:30:00 AM 7.0517 4.3105
8/11/2021 9:45:00 AM 7.0496 4.3074
8/11/2021 10:00:00 AM 7.05 4.2805
8/11/2021 10:15:00 AM 7.0531 4.2619
8/11/2021 10:30:00 AM 7.0551 4.1889
8/11/2021 10:45:00 AM 7.061 4.167
8/11/2021 11:00:00 AM 7.066 4.0852
8/11/2021 11:15:00 AM 7.0666 4.0198
8/11/2021 11:30:00 AM 7.0722 3.9741
8/11/2021 11:45:00 AM 7.077 3.8999
8/11/2021 12:00:00 PM 7.0942 3.864
8/11/2021 12:15:00 PM 7.1075 4.0743
8/11/2021 12:30:00 PM 7.123 4.3739
8/11/2021 12:45:00 PM 7.1354 4.7071
8/11/2021 1:00:00 PM 7.1536 4.9673
8/11/2021 1:15:00 PM 7.1847 4.9178
8/11/2021 1:30:00 PM 7.2111 4.542
8/11/2021 1:45:00 PM 7.2427 4.8817
8/11/2021 2:00:00 PM 7.2744 4.7001
8/11/2021 2:15:00 PM 7.294 4.5837
8/11/2021 2:30:00 PM 7.3119 4.5276
8/11/2021 2:45:00 PM 7.331 4.6436
8/11/2021 3:00:00 PM 7.3418 4.4809
8/11/2021 3:15:00 PM 7.3532 4.3614
8/11/2021 3:30:00 PM 7.3726 4.4612
8/11/2021 3:45:00 PM 7.403 4.7315
8/11/2021 4:00:00 PM 7.4356 4.7283
8/11/2021 4:15:00 PM 7.4635 4.544
8/11/2021 4:30:00 PM 7.4905 4.5498
8/11/2021 4:45:00 PM 7.5225 4.6017
8/11/2021 5:00:00 PM 7.5568 4.5276
8/11/2021 5:15:00 PM 7.583 4.4738
8/11/2021 5:30:00 PM 7.5964 4.5954
8/11/2021 5:45:00 PM 7.6034 5.7
8/11/2021 6:00:00 PM 7.6331 4.3623
8/11/2021 6:15:00 PM 7.6531 4.1338
8/11/2021 6:30:00 PM 7.673 4.2037
8/11/2021 6:45:00 PM 7.6873 4.1685
8/11/2021 7:00:00 PM 7.6957 4.1289
8/11/2021 7:15:00 PM 7.698 4.0855
8/11/2021 7:30:00 PM 7.6987 4.1086
8/11/2021 7:45:00 PM 7.7039 4.0852
8/11/2021 8:00:00 PM 7.6682 6.8851
8/11/2021 8:15:00 PM 7.6954 8.211
8/11/2021 8:30:00 PM 7.7202 6.4808
8/11/2021 8:45:00 PM 7.728 6.2
8/11/2021 9:00:00 PM 7.7161 8.1643
8/11/2021 9:15:00 PM 7.7128 6.747
8/11/2021 9:30:00 PM 7.7078 6.1363
8/11/2021 9:45:00 PM 7.7133 5.8018
8/11/2021 10:00:00 PM 7.72 5.7017
8/11/2021 10:15:00 PM 7.7223 5.7323
8/11/2021 10:30:00 PM 7.7208 5.5556
8/11/2021 10:45:00 PM 7.7161 5.6854
8/11/2021 11:00:00 PM 7.7077 5.7662
8/11/2021 11:15:00 PM 7.6954 5.744
8/11/2021 11:30:00 PM 7.6844 5.5338
8/11/2021 11:45:00 PM 7.679 5.5
8/12/2021 12:00:00 AM 7.6613 5.5434
8/12/2021 12:15:00 AM 7.6511 5.3946
8/12/2021 12:30:00 AM 7.635 5.597
8/12/2021 12:45:00 AM 7.618 5.7726
8/12/2021 1:00:00 AM 7.6041 5.9177
8/12/2021 1:15:00 AM 7.589 5.6458
8/12/2021 1:30:00 AM 7.5735 5.505
8/12/2021 1:45:00 AM 7.554 5.6487
8/12/2021 2:00:00 AM 7.5306 5.7671
8/12/2021 2:15:00 AM 7.5016 5.832
8/12/2021 2:30:00 AM 7.477 6.2168
8/12/2021 2:45:00 AM 7.4662 6.0997
8/12/2021 3:00:00 AM 7.4349 5.7111
8/12/2021 3:15:00 AM 7.4105 5.7605
8/12/2021 3:30:00 AM 7.3856 5.7455
8/12/2021 3:45:00 AM 7.3551 5.8901
8/12/2021 4:00:00 AM 7.329 5.8844
8/12/2021 4:15:00 AM 7.3017 5.8216
8/12/2021 4:30:00 AM 7.2541 5.1848
8/12/2021 4:45:00 AM 7.2265 4.8002
8/12/2021 5:00:00 AM 7.2073 4.7751
8/12/2021 5:15:00 AM 7.1879 4.7681
8/12/2021 5:30:00 AM 7.1666 4.8936
8/12/2021 5:45:00 AM 7.1596 5
8/12/2021 6:00:00 AM 7.1285 4.9931
8/12/2021 6:15:00 AM 7.1101 4.7382
8/12/2021 6:30:00 AM 7.0931 4.5276
8/12/2021 6:45:00 AM 7.0778 4.3161
8/12/2021 7:00:00 AM 7.0671 4.2461
8/12/2021 7:15:00 AM 7.0554 4.2929
8/12/2021 7:30:00 AM 7.0465 4.1817
8/12/2021 7:45:00 AM 7.0365 4.0538
8/12/2021 8:00:00 AM 7.0296 3.9462
8/12/2021 8:15:00 AM 7.0247 4.1166
8/12/2021 8:30:00 AM 7.0183 3.973
8/12/2021 8:45:00 AM 7.0196 4
8/12/2021 9:00:00 AM 7.0134 3.9683
8/12/2021 9:15:00 AM 7.0133 4.1077
8/12/2021 9:30:00 AM 7.0158 4.1618
8/12/2021 9:45:00 AM 7.0174 4.0968
8/12/2021 10:00:00 AM 7.0185 4.0974
8/12/2021 10:15:00 AM 7.0187 4.0038
8/12/2021 10:30:00 AM 7.0275 3.8698
8/12/2021 10:45:00 AM 7.0409 3.8526
8/12/2021 11:00:00 AM 7.0523 3.8635
8/12/2021 11:15:00 AM 7.0584 6.1735
8/12/2021 11:30:00 AM 7.072 3.961
8/12/2021 11:45:00 AM 7.0784 3.8
8/12/2021 12:00:00 PM 7.1094 6.6486
8/12/2021 12:15:00 PM 7.1475 4.744
8/12/2021 12:30:00 PM 7.1668 4.6215
8/12/2021 12:45:00 PM 7.1804 4.306
8/12/2021 1:00:00 PM 7.2162 4.0466
8/12/2021 1:15:00 PM 7.2444 3.9574
8/12/2021 1:30:00 PM 7.2533 3.7968
8/12/2021 1:45:00 PM 7.2623 3.9085
8/12/2021 2:00:00 PM 7.2781 4.0305
8/12/2021 2:15:00 PM 7.2993 4.1884
8/12/2021 2:30:00 PM 7.3254 4.3099
8/12/2021 2:45:00 PM 7.3566 4.5119
8/12/2021 3:00:00 PM 7.3831 4.2988
8/12/2021 3:15:00 PM 7.4039 4.3632
8/12/2021 3:30:00 PM 7.4049 4.3052
8/12/2021 3:45:00 PM 7.4055 4.1158
8/12/2021 4:00:00 PM 7.4027 3.9362
8/12/2021 4:15:00 PM 7.3982 3.9036
8/12/2021 4:30:00 PM 7.4023 3.9958
8/12/2021 4:45:00 PM 7.4159 3.9477
8/12/2021 5:00:00 PM 7.4402 3.9925
8/12/2021 5:15:00 PM 7.4757 3.926
8/12/2021 5:30:00 PM 7.506 3.8316
8/12/2021 5:45:00 PM 7.518 3.8
8/12/2021 6:00:00 PM 7.5539 3.9529
8/12/2021 6:15:00 PM 7.5769 3.822
8/12/2021 6:30:00 PM 7.5935 3.7878
8/12/2021 6:45:00 PM 7.6024 3.6897
8/12/2021 7:00:00 PM 7.6063 3.6701
8/12/2021 7:15:00 PM 7.6084 3.7848
8/12/2021 7:30:00 PM 7.6098 3.7334
8/12/2021 7:45:00 PM 7.6108 3.7291
8/12/2021 8:00:00 PM 7.6116 3.7887
8/12/2021 8:15:00 PM 7.611 3.7881
8/12/2021 8:30:00 PM 7.6081 3.9691
8/12/2021 8:45:00 PM 7.6034 4
8/12/2021 9:00:00 PM 7.6057 4.0472
8/12/2021 9:15:00 PM 7.6028 4.0403
8/12/2021 9:30:00 PM 7.6024 4.4187
8/12/2021 9:45:00 PM 7.594 4.6362
8/12/2021 10:00:00 PM 7.5595 9.3725
8/12/2021 10:15:00 PM 7.5942 8.1546
8/12/2021 10:30:00 PM 7.6011 6.9531
8/12/2021 10:45:00 PM 7.601 6.5197
8/12/2021 11:00:00 PM 7.5966 6.1033
8/12/2021 11:15:00 PM 7.5912 6.0743
8/12/2021 11:30:00 PM 7.5826 6.6238
8/12/2021 11:45:00 PM 7.5796 6.3
8/13/2021 12:00:00 AM 7.5564 5.9468
8/13/2021 12:15:00 AM 7.548 5.8208
8/13/2021 12:30:00 AM 7.5382 5.7648
8/13/2021 12:45:00 AM 7.5223 5.8729
8/13/2021 1:00:00 AM 7.5063 5.814
8/13/2021 1:15:00 AM 7.4937 5.6556
8/13/2021 1:30:00 AM 7.48 5.3714
8/13/2021 1:45:00 AM 7.4643 5.4791
8/13/2021 2:00:00 AM 7.4427 5.457
8/13/2021 2:15:00 AM 7.4253 7.5447
8/13/2021 2:30:00 AM 7.4019 8.829
8/13/2021 2:45:00 AM 7.3864 8.4005
8/13/2021 3:00:00 AM 7.3571 7.4936
8/13/2021 3:15:00 AM 7.3321 6.6759
8/13/2021 3:30:00 AM 7.3078 6.6848
8/13/2021 3:45:00 AM 7.2903 6.2815
8/13/2021 4:00:00 AM 7.2687 5.8948
8/13/2021 4:15:00 AM 7.2498 6.096
8/13/2021 4:30:00 AM 7.2282 7.1973
8/13/2021 4:45:00 AM 7.2041 6.7562
8/13/2021 5:00:00 AM 7.1784 6.6394
8/13/2021 5:15:00 AM 7.1645 7.4896
8/13/2021 5:30:00 AM 7.1482 7.3201
8/13/2021 5:45:00 AM 7.1372 7.2
8/13/2021 6:00:00 AM 7.1121 6.6176
8/13/2021 6:15:00 AM 7.0967 6.576
8/13/2021 6:30:00 AM 7.0791 6.1652
8/13/2021 6:45:00 AM 7.0642 5.6794
8/13/2021 7:00:00 AM 7.0515 5.1312
8/13/2021 7:15:00 AM 7.0426 5.0528
8/13/2021 7:30:00 AM 7.0323 5.279
8/13/2021 7:45:00 AM 7.0216 5.0617
8/13/2021 8:00:00 AM 7.0148 4.8256
8/13/2021 8:15:00 AM 7.0082 4.9266
8/13/2021 8:30:00 AM 7.0033 5.4061
8/13/2021 8:45:00 AM 7 10.1001
8/13/2021 9:00:00 AM 6.9988 5.3384
8/13/2021 9:15:00 AM 6.9987 5.1069
8/13/2021 9:30:00 AM 6.9999 5.1805
8/13/2021 9:45:00 AM 6.9972 4.7023
8/13/2021 10:00:00 AM 6.9925 3.5774
8/13/2021 10:15:00 AM 6.9609 3.4075
8/13/2021 10:30:00 AM 6.9718 3.4161
8/13/2021 10:45:00 AM 6.9882 3.4446
8/13/2021 11:00:00 AM 7.0051 3.3809
8/13/2021 11:15:00 AM 7.0236 3.3825
8/13/2021 11:30:00 AM 7.0375 3.3793
8/13/2021 11:45:00 AM 7.0434 3.4
8/13/2021 12:00:00 PM 7.0682 3.4934
8/13/2021 12:15:00 PM 7.0855 3.6733
8/13/2021 12:30:00 PM 7.0997 3.9032
8/13/2021 12:45:00 PM 7.1181 3.9407
8/13/2021 1:00:00 PM 7.1471 3.9439
8/13/2021 1:15:00 PM 7.1786 3.9682
8/13/2021 1:30:00 PM 7.2132 4.1293
8/13/2021 1:45:00 PM 7.2359 4.0999
8/13/2021 2:00:00 PM 7.2594 4.0324
8/13/2021 2:15:00 PM 7.2926 4.1315
8/13/2021 2:30:00 PM 7.3131 4.0972
8/13/2021 2:45:00 PM 7.3223 4.1601
8/13/2021 3:00:00 PM 7.3408 4.0701
8/13/2021 3:15:00 PM 7.3716 4.0065
8/13/2021 3:30:00 PM 7.4072 4.0252
8/13/2021 3:45:00 PM 7.4355 3.9367
8/13/2021 4:00:00 PM 7.4591 4.02
8/13/2021 4:15:00 PM 7.4736 4.2812
8/13/2021 4:30:00 PM 7.4942 4.2762
8/13/2021 4:45:00 PM 7.4991 3.6696
8/13/2021 5:00:00 PM 7.494 3.4403
8/13/2021 5:15:00 PM 7.4931 3.4679
8/13/2021 5:30:00 PM 7.4966 4.2584
8/13/2021 5:45:00 PM 7.4998 5.5
8/13/2021 6:00:00 PM 7.5166 6.1254
8/13/2021 6:15:00 PM 7.5309 4.439
8/13/2021 6:30:00 PM 7.5375 3.9153
8/13/2021 6:45:00 PM 7.5414 3.8699
8/13/2021 7:00:00 PM 7.5481 3.8325
8/13/2021 7:15:00 PM 7.5561 3.6457
8/13/2021 7:30:00 PM 7.5639 3.7365
8/13/2021 7:45:00 PM 7.572 3.9439
8/13/2021 8:00:00 PM 7.5775 4.1549
8/13/2021 8:15:00 PM 7.5771 4.22
8/13/2021 8:30:00 PM 7.5772 4.1899
8/13/2021 8:45:00 PM 7.5824 4.4
8/13/2021 9:00:00 PM 7.5442 8.2609
8/13/2021 9:15:00 PM 7.5782 7.5079
8/13/2021 9:30:00 PM 7.5838 6.9493
8/13/2021 9:45:00 PM 7.5865 6.253
8/13/2021 10:00:00 PM 7.5839 5.9674
8/13/2021 10:15:00 PM 7.5803 6.1286
8/13/2021 10:30:00 PM 7.573 5.8061
8/13/2021 10:45:00 PM 7.5608 5.6039
8/13/2021 11:00:00 PM 7.5457 5.7897
8/13/2021 11:15:00 PM 7.528 5.9005
8/13/2021 11:30:00 PM 7.5091 5.9421
8/13/2021 11:45:00 PM 7.4984 5.9
8/14/2021 12:00:00 AM 7.4593 10.9995
8/14/2021 12:15:00 AM 7.4227 17.2991
8/14/2021 12:30:00 AM 7.3914 26.3114
8/14/2021 12:45:00 AM 7.361 40.1618
8/14/2021 1:00:00 AM 7.3303 45.1341
8/14/2021 1:15:00 AM 7.3103 42.6544
8/14/2021 1:30:00 AM 7.2849 45.8974
8/14/2021 1:45:00 AM 7.2648 45.0717
8/14/2021 2:00:00 AM 7.2433 44.138
8/14/2021 2:15:00 AM 7.2212 39.5574
8/14/2021 2:30:00 AM 7.2044 28.1787
8/14/2021 2:45:00 AM 7.1946 20.3
8/14/2021 3:00:00 AM 7.1706 18.0373
8/14/2021 3:15:00 AM 7.1494 16.4241
8/14/2021 3:30:00 AM 7.1334 15.3333
8/14/2021 3:45:00 AM 7.1131 14.3053
8/14/2021 4:00:00 AM 7.0967 13.7344
8/14/2021 4:15:00 AM 7.0813 13.4594
8/14/2021 4:30:00 AM 7.0638 13.2197
8/14/2021 4:45:00 AM 7.0472 13.2974
8/14/2021 5:00:00 AM 7.0301 13.0697
8/14/2021 5:15:00 AM 7.0134 12.8887
8/14/2021 5:30:00 AM 6.9999 12.6553
8/14/2021 5:45:00 AM 6.9804 15.3001
8/14/2021 6:00:00 AM 6.9261 11.5038
8/14/2021 6:15:00 AM 6.9229 11.0797
8/14/2021 6:30:00 AM 6.9209 10.6316
8/14/2021 6:45:00 AM 6.9181 10.4256
8/14/2021 7:00:00 AM 6.9136 10.1221
8/14/2021 7:15:00 AM 6.9103 9.7741
8/14/2021 7:30:00 AM 6.9041 9.392
8/14/2021 7:45:00 AM 6.8975 9.0371
8/14/2021 8:00:00 AM 6.8939 8.6556
8/14/2021 8:15:00 AM 6.8923 8.3562
8/14/2021 8:30:00 AM 6.8898 8.1246
8/14/2021 8:45:00 AM 6.8852 8.0001
8/14/2021 9:00:00 AM 6.887 7.501
8/14/2021 9:15:00 AM 6.885 7.3895
8/14/2021 9:30:00 AM 6.8859 7.1102
8/14/2021 9:45:00 AM 6.8922 6.7211
8/14/2021 10:00:00 AM 6.8936 6.4201
8/14/2021 10:15:00 AM 6.898 6.2319
8/14/2021 10:30:00 AM 6.9061 6.2606
8/14/2021 10:45:00 AM 6.9144 6.0485
8/14/2021 11:00:00 AM 6.9237 5.9006
8/14/2021 11:15:00 AM 6.936 5.7733
8/14/2021 11:30:00 AM 6.945 5.6707
8/14/2021 11:45:00 AM 6.9496 5.7001
8/14/2021 12:00:00 PM 6.9587 5.5045
8/14/2021 12:15:00 PM 6.9677 5.3861
8/14/2021 12:30:00 PM 6.9813 5.2563
8/14/2021 12:45:00 PM 6.9975 5.2116
8/14/2021 1:00:00 PM 7.0126 5.1368
8/14/2021 1:15:00 PM 7.0315 5.0548
8/14/2021 1:30:00 PM 7.0441 4.8895
8/14/2021 1:45:00 PM 7.0608 4.943
8/14/2021 2:00:00 PM 7.0816 4.8826
8/14/2021 2:15:00 PM 7.1023 4.8127
8/14/2021 2:30:00 PM 7.122 4.634
8/14/2021 2:45:00 PM 7.1417 4.5839
8/14/2021 3:00:00 PM 7.1676 4.6233
8/14/2021 3:15:00 PM 7.1975 4.5424
8/14/2021 3:30:00 PM 7.2185 4.4798
8/14/2021 3:45:00 PM 7.2396 4.5641
8/14/2021 4:00:00 PM 7.266 4.5064
8/14/2021 4:15:00 PM 7.2946 4.4389
8/14/2021 4:30:00 PM 7.3255 4.3136
8/14/2021 4:45:00 PM 7.3536 4.3489
8/14/2021 5:00:00 PM 7.3847 4.2609
8/14/2021 5:15:00 PM 7.4117 4.3387
8/14/2021 5:30:00 PM 7.4485 4.2526
8/14/2021 5:45:00 PM 7.4634 4.3999
8/14/2021 6:00:00 PM 7.502 4.1412
8/14/2021 6:15:00 PM 7.5263 4.0787
8/14/2021 6:30:00 PM 7.5554 4.1395
8/14/2021 6:45:00 PM 7.5773 4.6902
8/14/2021 7:00:00 PM 7.5936 4.5182
8/14/2021 7:15:00 PM 7.6086 4.1908
8/14/2021 7:30:00 PM 7.6204 4.087
8/14/2021 7:45:00 PM 7.6269 4.1336
8/14/2021 8:00:00 PM 7.6265 4.166
8/14/2021 8:15:00 PM 7.6244 4.1335
8/14/2021 8:30:00 PM 7.6287 4.1411
8/14/2021 8:45:00 PM 7.6314 4.1
8/14/2021 9:00:00 PM 7.6319 4.1056
8/14/2021 9:15:00 PM 7.6366 4.3025
8/14/2021 9:30:00 PM 7.6394 4.364
8/14/2021 9:45:00 PM 7.5888 7.857
8/14/2021 10:00:00 PM 7.6391 7.2106
8/14/2021 10:15:00 PM 7.6536 6.3309
8/14/2021 10:30:00 PM 7.655 5.9284
8/14/2021 10:45:00 PM 7.6542 5.8254
8/14/2021 11:00:00 PM 7.6492 5.6383
8/14/2021 11:15:00 PM 7.6435 5.4341
8/14/2021 11:30:00 PM 7.6389 5.3979
8/14/2021 11:45:00 PM 7.6328 5.4999
8/15/2021 12:00:00 AM 7.6239 5.507
8/15/2021 12:15:00 AM 7.6133 5.5751
8/15/2021 12:30:00 AM 7.6039 5.5764
8/15/2021 12:45:00 AM 7.5882 5.837
8/15/2021 1:00:00 AM 7.5741 5.6656
8/15/2021 1:15:00 AM 7.5602 5.7937
8/15/2021 1:30:00 AM 7.5435 5.7124
8/15/2021 1:45:00 AM 7.5251 5.716
8/15/2021 2:00:00 AM 7.505 5.728
8/15/2021 2:15:00 AM 7.4849 6.0095
8/15/2021 2:30:00 AM 7.4636 5.6103
8/15/2021 2:45:00 AM 7.455 5.6
8/15/2021 3:00:00 AM 7.4157 6.2525
8/15/2021 3:15:00 AM 7.3915 5.7196
8/15/2021 3:30:00 AM 7.3642 5.4877
8/15/2021 3:45:00 AM 7.3238 5.599
8/15/2021 4:00:00 AM 7.2661 4.7593
8/15/2021 4:15:00 AM 7.2371 4.6649
8/15/2021 4:30:00 AM 7.2283 4.6251
8/15/2021 4:45:00 AM 7.2158 4.5868
8/15/2021 5:00:00 AM 7.2034 4.4963
8/15/2021 5:15:00 AM 7.1888 4.4603
8/15/2021 5:30:00 AM 7.1711 4.2045
8/15/2021 5:45:00 AM 7.1624 4.2
8/15/2021 6:00:00 AM 7.1388 4.1261
8/15/2021 6:15:00 AM 7.1238 4.0706
8/15/2021 6:30:00 AM 7.1072 3.988
8/15/2021 6:45:00 AM 7.091 3.9536
8/15/2021 7:00:00 AM 7.0762 3.9232
8/15/2021 7:15:00 AM 7.0666 3.8615
8/15/2021 7:30:00 AM 7.0566 3.8269
8/15/2021 7:45:00 AM 7.0509 3.8707
8/15/2021 8:00:00 AM 7.0455 3.7578
8/15/2021 8:15:00 AM 7.042 3.7298
8/15/2021 8:30:00 AM 7.04 3.7506
8/15/2021 8:45:00 AM 7.042 3.7
8/15/2021 9:00:00 AM 7.0384 3.6541
8/15/2021 9:15:00 AM 7.0371 3.6529
8/15/2021 9:30:00 AM 7.0346 3.6707
8/15/2021 9:45:00 AM 7.0324 3.7144
8/15/2021 10:00:00 AM 7.0355 3.689
8/15/2021 10:15:00 AM 7.0413 3.7142
8/15/2021 10:30:00 AM 7.0484 3.6093
8/15/2021 10:45:00 AM 7.0537 3.6087
8/15/2021 11:00:00 AM 7.0684 3.6505
8/15/2021 11:15:00 AM 7.084 3.7253
8/15/2021 11:30:00 AM 7.0973 3.6682
8/15/2021 11:45:00 AM 7.1064 3.6
8/15/2021 12:00:00 PM 7.1274 3.6573
8/15/2021 12:15:00 PM 7.1336 3.739
8/15/2021 12:30:00 PM 7.1472 3.7386
8/15/2021 12:45:00 PM 7.1629 3.8379
8/15/2021 1:00:00 PM 7.176 3.7216
8/15/2021 1:15:00 PM 7.1911 3.6836
8/15/2021 1:30:00 PM 7.2188 3.8704
8/15/2021 1:45:00 PM 7.2421 3.903
8/15/2021 2:00:00 PM 7.2667 3.7791
8/15/2021 2:15:00 PM 7.2897 3.7705
8/15/2021 2:30:00 PM 7.3105 3.9158
8/15/2021 2:45:00 PM 7.3351 3.8745
8/15/2021 3:00:00 PM 7.3673 3.7396
8/15/2021 3:15:00 PM 7.3938 3.7073
8/15/2021 3:30:00 PM 7.4236 3.6333
8/15/2021 3:45:00 PM 7.4525 3.7505
8/15/2021 4:00:00 PM 7.4796 3.7514
8/15/2021 4:15:00 PM 7.5122 3.656
8/15/2021 4:30:00 PM 7.5388 3.5831
8/15/2021 4:45:00 PM 7.5688 3.6543
8/15/2021 5:00:00 PM 7.5982 3.5227
8/15/2021 5:15:00 PM 7.6255 3.4279
8/15/2021 5:30:00 PM 7.6469 3.5521
8/15/2021 5:45:00 PM 7.6552 3.6001
8/15/2021 6:00:00 PM 7.6892 3.5716
8/15/2021 6:15:00 PM 7.7133 3.4565
8/15/2021 6:30:00 PM 7.7312 3.4275
8/15/2021 6:45:00 PM 7.7439 3.4585
8/15/2021 7:00:00 PM 7.7582 3.464
8/15/2021 7:15:00 PM 7.7668 4.1236
8/15/2021 7:30:00 PM 7.7713 3.7744
8/15/2021 7:45:00 PM 7.777 3.5585
8/15/2021 8:00:00 PM 7.7815 3.5913
8/15/2021 8:15:00 PM 7.7863 3.6553
8/15/2021 8:30:00 PM 7.792 3.7501
8/15/2021 8:45:00 PM 7.7966 3.7
8/15/2021 9:00:00 PM 7.8014 3.7213
8/15/2021 9:15:00 PM 7.8025 3.9423
8/15/2021 9:30:00 PM 7.8061 3.8065
8/15/2021 9:45:00 PM 7.8111 3.9524
8/15/2021 10:00:00 PM 7.7724 5.8408
8/15/2021 10:15:00 PM 7.8146 6.3513
8/15/2021 10:30:00 PM 7.8255 5.3672
8/15/2021 10:45:00 PM 7.8288 6.2893
8/15/2021 11:00:00 PM 7.8279 5.7493
8/15/2021 11:15:00 PM 7.8245 5.7997
8/15/2021 11:30:00 PM 7.8213 5.6537
8/15/2021 11:45:00 PM 7.8218 5.4999
8/16/2021 12:00:00 AM 7.8112 5.9584
8/16/2021 12:15:00 AM 7.8052 5.6997
8/16/2021 12:30:00 AM 7.7975 5.5964
8/16/2021 12:45:00 AM 7.7888 5.4258
8/16/2021 1:00:00 AM 7.7761 5.2466
8/16/2021 1:15:00 AM 7.7589 5.3027
8/16/2021 1:30:00 AM 7.7465 5.2712
8/16/2021 1:45:00 AM 7.7326 5.4217
8/16/2021 2:00:00 AM 7.7159 5.2813
8/16/2021 2:15:00 AM 7.6981 5.3575
8/16/2021 2:30:00 AM 7.6817 5.2141
8/16/2021 2:45:00 AM 7.6706 5.1
8/16/2021 3:00:00 AM 7.6417 5.4255
8/16/2021 3:15:00 AM 7.6149 5.546
8/16/2021 3:30:00 AM 7.5848 5.4471
8/16/2021 3:45:00 AM 7.5471 5.4929
8/16/2021 4:00:00 AM 7.5145 4.6965
8/16/2021 4:15:00 AM 7.4846 4.6584
8/16/2021 4:30:00 AM 7.4573 4.2888
8/16/2021 4:45:00 AM 7.4262 4.05
8/16/2021 5:00:00 AM 7.396 4.1884
8/16/2021 5:15:00 AM 7.3698 4.3524
8/16/2021 5:30:00 AM 7.3465 4.1538
8/16/2021 5:45:00 AM 7.3346 4.1
8/16/2021 6:00:00 AM 7.304 4.48
8/16/2021 6:15:00 AM 7.2794 4.4843
8/16/2021 6:30:00 AM 7.2576 4.389
8/16/2021 6:45:00 AM 7.24 3.972
8/16/2021 7:00:00 AM 7.2194 3.7591
8/16/2021 7:15:00 AM 7.2037 3.909
8/16/2021 7:30:00 AM 7.1899 3.9334
8/16/2021 7:45:00 AM 7.1754 3.8902
8/16/2021 8:00:00 AM 7.1609 3.859
8/16/2021 8:15:00 AM 7.1514 3.7791
8/16/2021 8:30:00 AM 7.1478 4.3179
8/16/2021 8:45:00 AM 7.1428 4.3
8/16/2021 9:00:00 AM 7.1318 3.7721
8/16/2021 9:15:00 AM 7.1256 3.8208
8/16/2021 9:30:00 AM 7.1225 3.7444
8/16/2021 9:45:00 AM 7.1244 3.6953
8/16/2021 10:00:00 AM 7.1238 3.6775
8/16/2021 10:15:00 AM 7.1263 3.7664
8/16/2021 10:30:00 AM 7.1338 3.7078
8/16/2021 10:45:00 AM 7.1436 3.7175
8/16/2021 11:00:00 AM 7.1522 3.8624
8/16/2021 11:15:00 AM 7.1638 3.9522
8/16/2021 11:30:00 AM 7.1765 3.7851
8/16/2021 11:45:00 AM 7.182 3.9
8/16/2021 12:00:00 PM 7.202 3.864
8/16/2021 12:15:00 PM 7.2186 4.0749
8/16/2021 12:30:00 PM 7.2339 3.8497
8/16/2021 12:45:00 PM 7.2571 3.856
8/16/2021 1:00:00 PM 7.2814 3.7045
8/16/2021 1:15:00 PM 7.3122 3.8967
8/16/2021 1:30:00 PM 7.3361 3.8615
8/16/2021 1:45:00 PM 7.357 3.8778
8/16/2021 2:00:00 PM 7.376 4.0261
8/16/2021 2:15:00 PM 7.3966 4.0512
8/16/2021 2:30:00 PM 7.4264 3.9509
8/16/2021 2:45:00 PM 7.4695 3.9752
8/16/2021 3:00:00 PM 7.5087 4.0471
8/16/2021 3:15:00 PM 7.5336 4.0164
8/16/2021 3:30:00 PM 7.5447 3.9719
8/16/2021 3:45:00 PM 7.5622 3.8694
8/16/2021 4:00:00 PM 7.5787 3.8476
8/16/2021 4:15:00 PM 7.5915 3.7911
8/16/2021 4:30:00 PM 7.6002 3.7004
8/16/2021 4:45:00 PM 7.6136 3.7173
8/16/2021 5:00:00 PM 7.6334 3.7736
8/16/2021 5:15:00 PM 7.6545 3.7675
8/16/2021 5:30:00 PM 7.6737 3.6825
8/16/2021 5:45:00 PM 7.686 3.6
8/16/2021 6:00:00 PM 7.705 3.9987
8/16/2021 6:15:00 PM 7.6705 5.8179
8/16/2021 6:30:00 PM 7.7142 5.3769
8/16/2021 6:45:00 PM 7.7425 4.874
8/16/2021 7:00:00 PM 7.7532 4.6055
8/16/2021 7:15:00 PM 7.7628 4.5957
8/16/2021 7:30:00 PM 7.7721 4.3724
8/16/2021 7:45:00 PM 7.7773 4.3811
8/16/2021 8:00:00 PM 7.7856 4.373
8/16/2021 8:15:00 PM 7.7932 4.5541
8/16/2021 8:30:00 PM 7.798 4.5307
8/16/2021 8:45:00 PM 7.8022 4.7
8/16/2021 9:00:00 PM 7.8001 4.8537
8/16/2021 9:15:00 PM 7.7996 4.9688
8/16/2021 9:30:00 PM 7.8036 4.8526
8/16/2021 9:45:00 PM 7.8074 4.9011
8/16/2021 10:00:00 PM 7.8138 4.8067
8/16/2021 10:15:00 PM 7.8191 4.873
8/16/2021 10:30:00 PM 7.8195 4.8966
8/16/2021 10:45:00 PM 7.8225 4.9274
8/16/2021 11:00:00 PM 7.8242 4.7628
8/16/2021 11:15:00 PM 7.8234 4.9075
8/16/2021 11:30:00 PM 7.8157 5.2822
8/16/2021 11:45:00 PM 7.8148 5.2
8/17/2021 12:00:00 AM 7.8047 4.85
8/17/2021 12:15:00 AM 7.7974 4.9412
8/17/2021 12:30:00 AM 7.7886 4.9439
8/17/2021 12:45:00 AM 7.7764 4.9843
8/17/2021 1:00:00 AM 7.7665 4.9199
8/17/2021 1:15:00 AM 7.7554 5.0089
8/17/2021 1:30:00 AM 7.7379 5.2526
8/17/2021 1:45:00 AM 7.7183 5.3627
8/17/2021 2:00:00 AM 7.7029 5.4233
8/17/2021 2:15:00 AM 7.6883 5.4955
8/17/2021 2:30:00 AM 7.6716 5.5001
8/17/2021 2:45:00 AM 7.6636 5.6002
8/17/2021 3:00:00 AM 7.628 5.6717
8/17/2021 3:15:00 AM 7.6052 5.5448
8/17/2021 3:30:00 AM 7.578 5.3028
8/17/2021 3:45:00 AM 7.5458 5.5338
8/17/2021 4:00:00 AM 7.5049 5.676
8/17/2021 4:15:00 AM 7.4654 4.7167
8/17/2021 4:30:00 AM 7.433 4.3348
8/17/2021 4:45:00 AM 7.4109 4.6033
8/17/2021 5:00:00 AM 7.3803 4.4131
8/17/2021 5:15:00 AM 7.3485 4.5163
8/17/2021 5:30:00 AM 7.3201 4.5117
8/17/2021 5:45:00 AM 7.3052 4.4
8/17/2021 6:00:00 AM 7.2699 4.3602
8/17/2021 6:15:00 AM 7.2477 4.3835
8/17/2021 6:30:00 AM 7.2244 4.516
8/17/2021 6:45:00 AM 7.2041 4.4034
8/17/2021 7:00:00 AM 7.1873 4.3683
8/17/2021 7:15:00 AM 7.1695 4.4517
8/17/2021 7:30:00 AM 7.1525 4.1184
8/17/2021 7:45:00 AM 7.136 4.0277
8/17/2021 8:00:00 AM 7.124 4.2104
8/17/2021 8:15:00 AM 7.1123 4.0376
8/17/2021 8:30:00 AM 7.103 3.9292
8/17/2021 8:45:00 AM 7.0994 4
8/17/2021 9:00:00 AM 7.0831 4.3052
8/17/2021 9:15:00 AM 7.0755 4.6797
8/17/2021 9:30:00 AM 7.0756 4.3241
8/17/2021 9:45:00 AM 7.0711 4.1068
8/17/2021 10:00:00 AM 7.0708 4.0124
8/17/2021 10:15:00 AM 7.071 3.9805
8/17/2021 10:30:00 AM 7.0748 4.0348
8/17/2021 10:45:00 AM 7.0754 4.2587
8/17/2021 11:00:00 AM 7.0781 4.1071
8/17/2021 11:15:00 AM 7.0886 4.1111
8/17/2021 11:30:00 AM 7.0952 3.9457
8/17/2021 11:45:00 AM 7.0924 3.9
8/17/2021 12:00:00 PM 7.1028 3.7858
8/17/2021 12:15:00 PM 7.1092 3.8316
8/17/2021 12:30:00 PM 7.1123 3.854
8/17/2021 12:45:00 PM 7.1193 3.851
8/17/2021 1:00:00 PM 7.1303 3.9125
8/17/2021 1:15:00 PM 7.1383 4.0006
8/17/2021 1:30:00 PM 7.1421 3.9511
8/17/2021 1:45:00 PM 7.1511 3.9541
8/17/2021 2:00:00 PM 7.1531 3.8966
8/17/2021 2:15:00 PM 7.164 4.0349
8/17/2021 2:30:00 PM 7.1835 4.0321
8/17/2021 2:45:00 PM 7.1998 4.0404
8/17/2021 3:00:00 PM 7.212 4.1828
8/17/2021 3:15:00 PM 7.2339 4.1063
8/17/2021 3:30:00 PM 7.2612 4.1716
8/17/2021 3:45:00 PM 7.2761 4.3013
8/17/2021 4:00:00 PM 7.2819 4.4572
8/17/2021 4:15:00 PM 7.2885 4.2216
8/17/2021 4:30:00 PM 7.307 4.0495
8/17/2021 4:45:00 PM 7.3277 3.9991
8/17/2021 5:00:00 PM 7.3473 4.0649
8/17/2021 5:15:00 PM 7.3677 4.1904
8/17/2021 5:30:00 PM 7.388 4.2222
8/17/2021 5:45:00 PM 7.392 4.2
8/17/2021 6:00:00 PM 7.4174 4.0516
8/17/2021 6:15:00 PM 7.4259 3.8901
8/17/2021 6:30:00 PM 7.4349 3.9253
8/17/2021 6:45:00 PM 7.4449 3.884
8/17/2021 7:00:00 PM 7.4498 3.7557
8/17/2021 7:15:00 PM 7.449 3.7715
8/17/2021 7:30:00 PM 7.4455 3.8849
8/17/2021 7:45:00 PM 7.4478 3.9175
8/17/2021 8:00:00 PM 7.4512 3.9318
8/17/2021 8:15:00 PM 7.4261 6.5975
8/17/2021 8:30:00 PM 7.4591 6.2774
8/17/2021 8:45:00 PM 7.4732 5.8
8/17/2021 9:00:00 PM 7.4816 5.4203
8/17/2021 9:15:00 PM 7.4849 5.5015
8/17/2021 9:30:00 PM 7.4905 5.4625
8/17/2021 9:45:00 PM 7.4914 5.1648
8/17/2021 10:00:00 PM 7.4874 5.1911
8/17/2021 10:15:00 PM 7.486 5.381
8/17/2021 10:30:00 PM 7.4903 5.3231
8/17/2021 10:45:00 PM 7.5002 5.4013
8/17/2021 11:00:00 PM 7.5086 5.5232
8/17/2021 11:15:00 PM 7.514 5.5526
8/17/2021 11:30:00 PM 7.5121 5.3438
8/17/2021 11:45:00 PM 7.511 5.4
8/18/2021 12:00:00 AM 7.5058 5.7413
8/18/2021 12:15:00 AM 7.4979 8.3592
8/18/2021 12:30:00 AM 7.4954 6.7593
8/18/2021 12:45:00 AM 7.4997 6.2337
8/18/2021 1:00:00 AM 7.4924 6.177
8/18/2021 1:15:00 AM 7.4824 6.2885
8/18/2021 1:30:00 AM 7.4742 6.0745
8/18/2021 1:45:00 AM 7.4719 6.1093
8/18/2021 2:00:00 AM 7.4653 6.2901
8/18/2021 2:15:00 AM 7.4549 6.5716
8/18/2021 2:30:00 AM 7.4439 6.5655
8/18/2021 2:45:00 AM 7.4354 6.7
8/18/2021 3:00:00 AM 7.418 6.1765
8/18/2021 3:15:00 AM 7.4052 6.3718
8/18/2021 3:30:00 AM 7.3904 6.5454
8/18/2021 3:45:00 AM 7.3721 6.6308
8/18/2021 4:00:00 AM 7.3538 6.862
8/18/2021 4:15:00 AM 7.2887 6.3225
8/18/2021 4:30:00 AM 7.2647 5.6317
8/18/2021 4:45:00 AM 7.2555 5.5319
8/18/2021 5:00:00 AM 7.2429 5.4332
8/18/2021 5:15:00 AM 7.224 5.3138
8/18/2021 5:30:00 AM 7.2008 4.9558
8/18/2021 5:45:00 AM 7.1932 4.9
8/18/2021 6:00:00 AM 7.1668 5.7383
8/18/2021 6:15:00 AM 7.1459 5.7117
8/18/2021 6:30:00 AM 7.1287 5.4056
8/18/2021 6:45:00 AM 7.1152 5.0037
8/18/2021 7:00:00 AM 7.0968 4.3205
8/18/2021 7:15:00 AM 7.0785 4.1109
8/18/2021 7:30:00 AM 7.0631 4.0132
8/18/2021 7:45:00 AM 7.0491 4.0598
8/18/2021 8:00:00 AM 7.0419 3.8906
8/18/2021 8:15:00 AM 7.0344 3.9539
8/18/2021 8:30:00 AM 7.026 3.9777
8/18/2021 8:45:00 AM 7.0252 3.9
8/18/2021 9:00:00 AM 7.0102 3.9243
8/18/2021 9:15:00 AM 7.003 3.9403
8/18/2021 9:30:00 AM 6.9987 3.8844
8/18/2021 9:45:00 AM 6.9985 3.9268
8/18/2021 10:00:00 AM 7.0026 4.3142
8/18/2021 10:15:00 AM 7.0085 3.9024
8/18/2021 10:30:00 AM 7.0081 3.919
8/18/2021 10:45:00 AM 7.0079 4.0946
8/18/2021 11:00:00 AM 7.012 4.252
8/18/2021 11:15:00 AM 7.0194 4.1247
8/18/2021 11:30:00 AM 7.0253 4.1298
8/18/2021 11:45:00 AM 7.0252 4.1
8/18/2021 12:00:00 PM 7.0461 4.1735
8/18/2021 12:15:00 PM 7.0517 4.2937
8/18/2021 12:30:00 PM 7.0587 4.2918
8/18/2021 12:45:00 PM 7.0699 4.2902
8/18/2021 1:00:00 PM 7.0794 4.2657
8/18/2021 1:15:00 PM 7.0894 4.2057
8/18/2021 1:30:00 PM 7.0987 4.247
8/18/2021 1:45:00 PM 7.1107 4.3703
8/18/2021 2:00:00 PM 7.1255 4.2842
8/18/2021 2:15:00 PM 7.1369 4.165
8/18/2021 2:30:00 PM 7.1454 4.1452
8/18/2021 2:45:00 PM 7.1536 4.207
8/18/2021 3:00:00 PM 7.1645 4.2737
8/18/2021 3:15:00 PM 7.1725 4.4643
8/18/2021 3:30:00 PM 7.1793 4.5659
8/18/2021 3:45:00 PM 7.1955 4.4687
8/18/2021 4:00:00 PM 7.2109 4.3484
8/18/2021 4:15:00 PM 7.2257 4.2357
8/18/2021 4:30:00 PM 7.2364 4.1457
8/18/2021 4:45:00 PM 7.2524 4.2454
8/18/2021 5:00:00 PM 7.2715 4.2117
8/18/2021 5:15:00 PM 7.2891 4.2053
8/18/2021 5:30:00 PM 7.3029 4.0447
8/18/2021 5:45:00 PM 7.3094 4.1
8/18/2021 6:00:00 PM 7.3258 4.1867
8/18/2021 6:15:00 PM 7.3357 4.1089
8/18/2021 6:30:00 PM 7.344 4.0579
8/18/2021 6:45:00 PM 7.3528 4.2332
8/18/2021 7:00:00 PM 7.36 4.1215
8/18/2021 7:15:00 PM 7.3623 4.1805
8/18/2021 7:30:00 PM 7.3681 4.2348
8/18/2021 7:45:00 PM 7.3778 4.4428
8/18/2021 8:00:00 PM 7.3802 4.4512
8/18/2021 8:15:00 PM 7.384 4.6633
8/18/2021 8:30:00 PM 7.3906 5.4088
8/18/2021 8:45:00 PM 7.3962 5.4
8/18/2021 9:00:00 PM 7.4059 5.2616
8/18/2021 9:15:00 PM 7.4102 5.395
8/18/2021 9:30:00 PM 7.4139 5.5285
8/18/2021 9:45:00 PM 7.4189 5.5882
8/18/2021 10:00:00 PM 7.4246 5.7357
8/18/2021 10:15:00 PM 7.424 5.8476
8/18/2021 10:30:00 PM 7.4221 5.7812
8/18/2021 10:45:00 PM 7.4231 5.6362
8/18/2021 11:00:00 PM 7.4231 5.6714
8/18/2021 11:15:00 PM 7.4239 5.8066
8/18/2021 11:30:00 PM 7.4242 5.777
8/18/2021 11:45:00 PM 7.4256 5.5001
8/19/2021 12:00:00 AM 7.4258 5.2289
8/19/2021 12:15:00 AM 7.4242 5.3434
8/19/2021 12:30:00 AM 7.4208 4.9928
8/19/2021 12:45:00 AM 7.4132 5.1828
8/19/2021 1:00:00 AM 7.407 13.9114
8/19/2021 1:15:00 AM 7.4035 5.2127
8/19/2021 1:30:00 AM 7.397 5.3976
8/19/2021 1:45:00 AM 7.3854 5.4985
8/19/2021 2:00:00 AM 7.3757 4.8986
8/19/2021 2:15:00 AM 7.3637 4.9335
8/19/2021 2:30:00 AM 7.3486 5.5069
8/19/2021 2:45:00 AM 7.3416 5.6
8/19/2021 3:00:00 AM 7.3179 5.6554
8/19/2021 3:15:00 AM 7.3013 5.3259
8/19/2021 3:30:00 AM 7.2847 5.2431
8/19/2021 3:45:00 AM 7.2685 5.0063
8/19/2021 4:00:00 AM 7.2502 5.4612
8/19/2021 4:15:00 AM 7.2313 5.7254
8/19/2021 4:30:00 AM 7.2166 5.7597
8/19/2021 4:45:00 AM 7.1971 5.9051
8/19/2021 5:00:00 AM 7.1539 5.9702
8/19/2021 5:15:00 AM 7.1314 6.1526
8/19/2021 5:30:00 AM 7.1178 6.4263
8/19/2021 5:45:00 AM 7.112 6.6998
8/19/2021 6:00:00 AM 7.0865 7.4594
8/19/2021 6:15:00 AM 7.0691 7.6629
8/19/2021 6:30:00 AM 7.054 7.5147
8/19/2021 6:45:00 AM 7.0349 7.6882
8/19/2021 7:00:00 AM 7.0188 7.8686
8/19/2021 7:15:00 AM 7.0019 7.9073
8/19/2021 7:30:00 AM 6.9923 8.1188
8/19/2021 7:45:00 AM 6.9803 8.5155
8/19/2021 8:00:00 AM 6.9709 8.3417
8/19/2021 8:15:00 AM 6.9619 8.2898
8/19/2021 8:30:00 AM 6.9564 8.1475
8/19/2021 8:45:00 AM 6.9496 8.1
8/19/2021 9:00:00 AM 6.9462 7.9466
8/19/2021 9:15:00 AM 6.9458 8.1528
8/19/2021 9:30:00 AM 6.9491 7.6951
8/19/2021 9:45:00 AM 6.9487 7.423
8/19/2021 10:00:00 AM 6.9492 7.1032
8/19/2021 10:15:00 AM 6.9449 6.7733
8/19/2021 10:30:00 AM 6.9423 6.4745
8/19/2021 10:45:00 AM 6.9413 6.2659
8/19/2021 11:00:00 AM 6.9409 5.9552
8/19/2021 11:15:00 AM 6.9366 5.7147
8/19/2021 11:30:00 AM 6.9342 5.647
8/19/2021 11:45:00 AM 6.9328 5.7
8/19/2021 12:00:00 PM 6.9325 5.7723
8/19/2021 12:15:00 PM 6.9366 5.826
8/19/2021 12:30:00 PM 6.9438 5.8729
8/19/2021 12:45:00 PM 6.949 6.0756
8/19/2021 1:00:00 PM 6.9526 6.0774
8/19/2021 1:15:00 PM 6.9633 5.9806
8/19/2021 1:30:00 PM 6.9746 5.9239
8/19/2021 1:45:00 PM 6.9854 5.7783
8/19/2021 2:00:00 PM 6.9972 5.6699
8/19/2021 2:15:00 PM 7.0093 5.5417
8/19/2021 2:30:00 PM 7.0247 5.3715
8/19/2021 2:45:00 PM 7.0461 5.3339
8/19/2021 3:00:00 PM 7.0664 5.3222
8/19/2021 3:15:00 PM 7.0863 5.3052
8/19/2021 3:30:00 PM 7.1116 5.1832
8/19/2021 3:45:00 PM 7.1374 4.9799
8/19/2021 4:00:00 PM 7.1584 4.8719
8/19/2021 4:15:00 PM 7.174 4.8464
8/19/2021 4:30:00 PM 7.1916 4.8189
8/19/2021 4:45:00 PM 7.2181 4.6396
8/19/2021 5:00:00 PM 7.247 4.7108
8/19/2021 5:15:00 PM 7.2702 4.7088
8/19/2021 5:30:00 PM 7.2834 4.9342
8/19/2021 5:45:00 PM 7.2968 5
8/19/2021 6:00:00 PM 7.3091 5.1073
8/19/2021 6:15:00 PM 7.318 5.0942
8/19/2021 6:30:00 PM 7.3338 4.8381
8/19/2021 6:45:00 PM 7.3484 4.8482
8/19/2021 7:00:00 PM 7.3577 4.8808
8/19/2021 7:15:00 PM 7.3644 4.6891
8/19/2021 7:30:00 PM 7.3659 4.7229
8/19/2021 7:45:00 PM 7.3663 4.9897
8/19/2021 8:00:00 PM 7.3623 4.9406
8/19/2021 8:15:00 PM 7.3566 5.0425
8/19/2021 8:30:00 PM 7.35 5.0777
8/19/2021 8:45:00 PM 7.3486 5.1
8/19/2021 9:00:00 PM 7.3499 5.3075
8/19/2021 9:15:00 PM 7.3518 5.8374
8/19/2021 9:30:00 PM 7.3202 8.799
8/19/2021 9:45:00 PM 7.3503 7.8335
8/19/2021 10:00:00 PM 7.3638 7.0203
8/19/2021 10:15:00 PM 7.3713 6.872
8/19/2021 10:30:00 PM 7.3778 6.5967
8/19/2021 10:45:00 PM 7.3777 6.4436
8/19/2021 11:00:00 PM 7.3734 6.4183
8/19/2021 11:15:00 PM 7.368 6.2221
8/19/2021 11:30:00 PM 7.3624 6.3481
8/19/2021 11:45:00 PM 7.3598 6.6
8/20/2021 12:00:00 AM 7.3619 6.2907
8/20/2021 12:15:00 AM 7.3596 6.3221
8/20/2021 12:30:00 AM 7.3536 6.3712
8/20/2021 12:45:00 AM 7.3453 6.4273
8/20/2021 1:00:00 AM 7.3381 6.2182
8/20/2021 1:15:00 AM 7.3286 6.245
8/20/2021 1:30:00 AM 7.3191 6.2507
8/20/2021 1:45:00 AM 7.3079 6.0444
8/20/2021 2:00:00 AM 7.2945 6.3032
8/20/2021 2:15:00 AM 7.279 6.4709
8/20/2021 2:30:00 AM 7.2621 6.4409
8/20/2021 2:45:00 AM 7.2548 6.5002
8/20/2021 3:00:00 AM 7.2291 6.3592
8/20/2021 3:15:00 AM 7.1879 6.1549
8/20/2021 3:30:00 AM 7.1525 5.4413
8/20/2021 3:45:00 AM 7.1397 5.485
8/20/2021 4:00:00 AM 7.1303 5.2602
8/20/2021 4:15:00 AM 7.1192 5.079
8/20/2021 4:30:00 AM 7.1018 5.1487
8/20/2021 4:45:00 AM 7.0845 5.3282
8/20/2021 5:00:00 AM 7.0683 5.1959
8/20/2021 5:15:00 AM 7.0527 5.0451
8/20/2021 5:30:00 AM 7.0373 5.1413
8/20/2021 5:45:00 AM 7.0294 5.4
8/20/2021 6:00:00 AM 7.0102 5.2161
8/20/2021 6:15:00 AM 6.9961 5.2136
8/20/2021 6:30:00 AM 6.984 5.7568
8/20/2021 6:45:00 AM 6.9702 4.958
8/20/2021 7:00:00 AM 6.9581 4.8487
8/20/2021 7:15:00 AM 6.9512 4.4726
8/20/2021 7:30:00 AM 6.9425 4.434
8/20/2021 7:45:00 AM 6.9346 4.3206
8/20/2021 8:00:00 AM 6.9272 4.2677
8/20/2021 8:15:00 AM 6.9194 4.2712
8/20/2021 8:30:00 AM 6.9149 4.3395
8/20/2021 8:45:00 AM 6.9132 4.3
8/20/2021 9:00:00 AM 6.9087 4.5386
8/20/2021 9:15:00 AM 6.9104 4.3565
8/20/2021 9:30:00 AM 6.9044 4.2002
8/20/2021 9:45:00 AM 6.9044 4.321
8/20/2021 10:00:00 AM 6.9027 4.3183
8/20/2021 10:15:00 AM 6.9032 4.2804
8/20/2021 10:30:00 AM 6.9065 4.2823
8/20/2021 10:45:00 AM 6.9114 4.183
8/20/2021 11:00:00 AM 6.9166 4.3285
8/20/2021 11:15:00 AM 6.9237 4.2712
8/20/2021 11:30:00 AM 6.934 4.1023
8/20/2021 11:45:00 AM 6.937 4.2
8/20/2021 12:00:00 PM 6.9535 4.0673
8/20/2021 12:15:00 PM 6.9644 4.0325
8/20/2021 12:30:00 PM 6.9747 4.1927
8/20/2021 12:45:00 PM 6.987 4.1228
8/20/2021 1:00:00 PM 7 4.1177
8/20/2021 1:15:00 PM 7.0109 4.2937
8/20/2021 1:30:00 PM 7.023 4.2333
8/20/2021 1:45:00 PM 7.0281 4.1523
8/20/2021 2:00:00 PM 7.0357 4.0584
8/20/2021 2:15:00 PM 7.0491 4.0824
8/20/2021 2:30:00 PM 7.068 4.0355
8/20/2021 2:45:00 PM 7.0886 3.939
8/20/2021 3:00:00 PM 7.1098 4.371
8/20/2021 3:15:00 PM 7.1358 3.9492
8/20/2021 3:30:00 PM 7.1578 7.7182
8/20/2021 3:45:00 PM 7.1738 5.7153
8/20/2021 4:00:00 PM 7.2001 4.1469
8/20/2021 4:15:00 PM 7.2199 3.8904
8/20/2021 4:30:00 PM 7.2413 3.899
8/20/2021 4:45:00 PM 7.2662 3.9074
8/20/2021 5:00:00 PM 7.2951 3.8012
8/20/2021 5:15:00 PM 7.3218 3.8658
8/20/2021 5:30:00 PM 7.3444 3.7386
8/20/2021 5:45:00 PM 7.3528 3.8
8/20/2021 6:00:00 PM 7.3832 4.046
8/20/2021 6:15:00 PM 7.4079 4.0689
8/20/2021 6:30:00 PM 7.4361 3.9872
8/20/2021 6:45:00 PM 7.466 3.8956
8/20/2021 7:00:00 PM 7.4814 3.8657
8/20/2021 7:15:00 PM 7.4906 3.9637
8/20/2021 7:30:00 PM 7.4977 3.8498
8/20/2021 7:45:00 PM 7.5109 3.9585
8/20/2021 8:00:00 PM 7.5143 4.0024
8/20/2021 8:15:00 PM 7.5179 4.003
8/20/2021 8:30:00 PM 7.5257 4.1576
8/20/2021 8:45:00 PM 7.525 4.2
8/20/2021 9:00:00 PM 7.5278 4.3104
8/20/2021 9:15:00 PM 7.5255 4.4819
8/20/2021 9:30:00 PM 7.4994 6.3502
8/20/2021 9:45:00 PM 7.5048 6.2193
8/20/2021 10:00:00 PM 7.5172 5.4698
8/20/2021 10:15:00 PM 7.5099 5.7819
8/20/2021 10:30:00 PM 7.4974 5.8487
8/20/2021 10:45:00 PM 7.4799 5.6316
8/20/2021 11:00:00 PM 7.4632 5.4757
8/20/2021 11:15:00 PM 7.4433 5.184
8/20/2021 11:30:00 PM 7.4267 5.0656
8/20/2021 11:45:00 PM 7.4172 5.1
8/21/2021 12:00:00 AM 7.3768 5.8996
8/21/2021 12:15:00 AM 7.3465 6.0198
8/21/2021 12:30:00 AM 7.319 5.9905
8/21/2021 12:45:00 AM 7.2975 5.6726
8/21/2021 1:00:00 AM 7.2801 5.7035
8/21/2021 1:15:00 AM 7.2552 5.4675
8/21/2021 1:30:00 AM 7.2387 5.6191
8/21/2021 1:45:00 AM 7.2152 5.6081
8/21/2021 2:00:00 AM 7.1954 5.6035
8/21/2021 2:15:00 AM 7.1748 6.096
8/21/2021 2:30:00 AM 7.164 5.7343
8/21/2021 2:45:00 AM 7.1554 5.8003
8/21/2021 3:00:00 AM 7.1382 5.384
8/21/2021 3:15:00 AM 7.1297 5.7072
8/21/2021 3:30:00 AM 7.112 5.5682
8/21/2021 3:45:00 AM 7.0988 5.3241
8/21/2021 4:00:00 AM 7.0916 5.4794
8/21/2021 4:15:00 AM 7.049 5.3687
8/21/2021 4:30:00 AM 7.0273 5.0988
8/21/2021 4:45:00 AM 7.0023 5.0176
8/21/2021 5:00:00 AM 7.0027 5.0701
8/21/2021 5:15:00 AM 7.0168 5.5402
8/21/2021 5:30:00 AM 7.0142 6.0282
8/21/2021 5:45:00 AM 7.0154 6.2
8/21/2021 6:00:00 AM 7.0117 6.0139
8/21/2021 6:15:00 AM 7.0081 6.4146
8/21/2021 6:30:00 AM 7.0037 6.2298
8/21/2021 6:45:00 AM 7.0039 5.5609
8/21/2021 7:00:00 AM 7.0059 5.2263
8/21/2021 7:15:00 AM 7.0099 4.9478
8/21/2021 7:30:00 AM 7.0122 5.2148
8/21/2021 7:45:00 AM 7.0149 4.7782
8/21/2021 8:00:00 AM 7.0216 4.7122
8/21/2021 8:15:00 AM 7.0229 4.9644
8/21/2021 8:30:00 AM 7.0257 4.9126
8/21/2021 8:45:00 AM 7.035 4.9001
8/21/2021 9:00:00 AM 7.0377 5.0849
8/21/2021 9:15:00 AM 7.0432 5.4793
8/21/2021 9:30:00 AM 7.0582 5.241
8/21/2021 9:45:00 AM 7.0705 4.8482
8/21/2021 10:00:00 AM 7.0749 4.3739
8/21/2021 10:15:00 AM 7.0791 4.2675
8/21/2021 10:30:00 AM 7.0875 4.1139
8/21/2021 10:45:00 AM 7.098 4.2179
8/21/2021 11:00:00 AM 7.1071 4.062
8/21/2021 11:15:00 AM 7.1159 3.9928
8/21/2021 11:30:00 AM 7.1244 3.7759
8/21/2021 11:45:00 AM 7.1288 3.8
8/21/2021 12:00:00 PM 7.1374 4.2646
8/21/2021 12:15:00 PM 7.1458 4.4535
8/21/2021 12:30:00 PM 7.1564 5.1015
8/21/2021 12:45:00 PM 7.1686 5.063
8/21/2021 1:00:00 PM 7.1793 4.4928
8/21/2021 1:15:00 PM 7.1917 4.8168
8/21/2021 1:30:00 PM 7.2035 4.8703
8/21/2021 1:45:00 PM 7.2192 4.6721
8/21/2021 2:00:00 PM 7.233 4.51
8/21/2021 2:15:00 PM 7.2436 4.694
8/21/2021 2:30:00 PM 7.2567 4.6299
8/21/2021 2:45:00 PM 7.2676 4.7941
8/21/2021 3:00:00 PM 7.2777 4.7415
8/21/2021 3:15:00 PM 7.2927 4.716
8/21/2021 3:30:00 PM 7.307 4.8198
8/21/2021 3:45:00 PM 7.3243 4.5112
8/21/2021 4:00:00 PM 7.3419 4.3244
8/21/2021 4:15:00 PM 7.3595 4.0687
8/21/2021 4:30:00 PM 7.3714 4.0399
8/21/2021 4:45:00 PM 7.3879 3.9744
8/21/2021 5:00:00 PM 7.4025 3.9573
8/21/2021 5:15:00 PM 7.4154 4.067
8/21/2021 5:30:00 PM 7.4326 3.9992
8/21/2021 5:45:00 PM 7.4396 4.1
8/21/2021 6:00:00 PM 7.4615 4.0043
8/21/2021 6:15:00 PM 7.4738 3.9648
8/21/2021 6:30:00 PM 7.4806 3.9516
8/21/2021 6:45:00 PM 7.4882 3.9884
8/21/2021 7:00:00 PM 7.4958 3.987
8/21/2021 7:15:00 PM 7.5017 3.9732
8/21/2021 7:30:00 PM 7.5024 3.9527
8/21/2021 7:45:00 PM 7.5001 3.9099
8/21/2021 8:00:00 PM 7.4949 3.8958
8/21/2021 8:15:00 PM 7.4892 4.0825
8/21/2021 8:30:00 PM 7.481 4.3413
8/21/2021 8:45:00 PM 7.476 4.4999
8/21/2021 9:00:00 PM 7.462 4.3761
8/21/2021 9:15:00 PM 7.4498 4.2706
8/21/2021 9:30:00 PM 7.4378 4.1447
8/21/2021 9:45:00 PM 7.3989 6.3174
8/21/2021 10:00:00 PM 7.4105 5.5185
8/21/2021 10:15:00 PM 7.4091 5.0376
8/21/2021 10:30:00 PM 7.4 4.9833
8/21/2021 10:45:00 PM 7.3885 5.0632
8/21/2021 11:00:00 PM 7.3763 4.7796
8/21/2021 11:15:00 PM 7.3654 4.8182
8/21/2021 11:30:00 PM 7.3516 4.5679
8/21/2021 11:45:00 PM 7.3458 4.4
8/22/2021 12:00:00 AM 7.3247 4.6932
8/22/2021 12:15:00 AM 7.3139 4.7529
8/22/2021 12:30:00 AM 7.3024 4.7207
8/22/2021 12:45:00 AM 7.2878 4.8666
8/22/2021 1:00:00 AM 7.2735 4.8247
8/22/2021 1:15:00 AM 7.2613 4.8465
8/22/2021 1:30:00 AM 7.2493 4.7273
8/22/2021 1:45:00 AM 7.2366 4.8321
8/22/2021 2:00:00 AM 7.2238 4.7491
8/22/2021 2:15:00 AM 7.2077 4.8159
8/22/2021 2:30:00 AM 7.196 4.8703
8/22/2021 2:45:00 AM 7.1932 4.8001
8/22/2021 3:00:00 AM 7.1742 4.7191
8/22/2021 3:15:00 AM 7.1636 4.6443
8/22/2021 3:30:00 AM 7.1513 4.8339
8/22/2021 3:45:00 AM 7.1409 5.0805
8/22/2021 4:00:00 AM 7.1245 5.1159
8/22/2021 4:15:00 AM 7.0969 4.8444
8/22/2021 4:30:00 AM 7.0838 4.747
8/22/2021 4:45:00 AM 7.0732 4.7254
8/22/2021 5:00:00 AM 7.0702 4.5714
8/22/2021 5:15:00 AM 7.0668 4.3985
8/22/2021 5:30:00 AM 7.0622 4.5075
8/22/2021 5:45:00 AM 7.063 4.6
8/22/2021 6:00:00 AM 7.0494 4.7216
8/22/2021 6:15:00 AM 7.0432 5.0795
8/22/2021 6:30:00 AM 7.038 5.0512
8/22/2021 6:45:00 AM 7.0322 4.5937
8/22/2021 7:00:00 AM 7.0282 4.3271
8/22/2021 7:15:00 AM 7.0275 4.2885
8/22/2021 7:30:00 AM 7.0234 4.2208
8/22/2021 7:45:00 AM 7.0218 4.2742
8/22/2021 8:00:00 AM 7.0182 4.1847
8/22/2021 8:15:00 AM 7.018 4.1194
8/22/2021 8:30:00 AM 7.0175 4.0865
8/22/2021 8:45:00 AM 7.0154 4
8/22/2021 9:00:00 AM 7.0183 4.0797
8/22/2021 9:15:00 AM 7.0201 4.5681
8/22/2021 9:30:00 AM 7.0272 4.2551
8/22/2021 9:45:00 AM 7.0282 4.1468
8/22/2021 10:00:00 AM 7.0345 4.1423
8/22/2021 10:15:00 AM 7.0403 4.1284
8/22/2021 10:30:00 AM 7.0474 3.9567
8/22/2021 10:45:00 AM 7.0547 3.9777
8/22/2021 11:00:00 AM 7.062 3.9449
8/22/2021 11:15:00 AM 7.0717 3.914
8/22/2021 11:30:00 AM 7.0808 3.8262
8/22/2021 11:45:00 AM 7.0854 3.8
8/22/2021 12:00:00 PM 7.1014 3.8569
8/22/2021 12:15:00 PM 7.1111 3.8605
8/22/2021 12:30:00 PM 7.1188 3.7971
8/22/2021 12:45:00 PM 7.1248 3.8372
8/22/2021 1:00:00 PM 7.1349 3.912
8/22/2021 1:15:00 PM 7.1446 3.9052
8/22/2021 1:30:00 PM 7.1549 3.7891
8/22/2021 1:45:00 PM 7.1655 3.8925
8/22/2021 2:00:00 PM 7.1679 3.8954
8/22/2021 2:15:00 PM 7.1697 3.8577
8/22/2021 2:30:00 PM 7.182 3.8641
8/22/2021 2:45:00 PM 7.1965 3.7963
8/22/2021 3:00:00 PM 7.2059 3.7722
8/22/2021 3:15:00 PM 7.2136 3.7243
8/22/2021 3:30:00 PM 7.2241 3.6378
8/22/2021 3:45:00 PM 7.2353 3.6439
8/22/2021 4:00:00 PM 7.2461 3.5406
8/22/2021 4:15:00 PM 7.2566 3.6409
8/22/2021 4:30:00 PM 7.2625 3.7965
8/22/2021 4:45:00 PM 7.2682 3.7048
8/22/2021 5:00:00 PM 7.277 3.6171
8/22/2021 5:15:00 PM 7.2823 3.7274
8/22/2021 5:30:00 PM 7.2887 3.7286
8/22/2021 5:45:00 PM 7.2884 3.5
8/22/2021 6:00:00 PM 7.2964 3.6096
8/22/2021 6:15:00 PM 7.299 3.903
8/22/2021 6:30:00 PM 7.2989 3.9196
8/22/2021 6:45:00 PM 7.2984 3.9271
8/22/2021 7:00:00 PM 7.2951 3.8673
8/22/2021 7:15:00 PM 7.2948 3.8726
8/22/2021 7:30:00 PM 7.2979 3.7114
8/22/2021 7:45:00 PM 7.2983 3.5816
8/22/2021 8:00:00 PM 7.2955 3.7
8/22/2021 8:15:00 PM 7.2928 3.7728
8/22/2021 8:30:00 PM 7.2893 4.1157
8/22/2021 8:45:00 PM 7.2912 4.3
8/22/2021 9:00:00 PM 7.2752 4.4813
8/22/2021 9:15:00 PM 7.2651 5.1298
8/22/2021 9:30:00 PM 7.2601 5.1177
8/22/2021 9:45:00 PM 7.2507 6.1432
8/22/2021 10:00:00 PM 7.2223 7.5343
8/22/2021 10:15:00 PM 7.2315 5.791
8/22/2021 10:30:00 PM 7.23 4.9536
8/22/2021 10:45:00 PM 7.2223 6.1546
8/22/2021 11:00:00 PM 7.2063 12.5929
8/22/2021 11:15:00 PM 7.1861 200.5283
8/22/2021 11:30:00 PM 7.1599 505.7245
8/22/2021 11:45:00 PM 7.1498 647.0995
8/23/2021 12:00:00 AM 7.1234 658.2671
8/23/2021 12:15:00 AM 7.1128 504.9771
8/23/2021 12:30:00 AM 7.1045 448.3684
8/23/2021 12:45:00 AM 7.0925 380.1501
8/23/2021 1:00:00 AM 7.0827 331.3191
8/23/2021 1:15:00 AM 7.0731 290.0977
8/23/2021 1:30:00 AM 7.0663 249.2653
8/23/2021 1:45:00 AM 7.0611 235.3665
8/23/2021 2:00:00 AM 7.0538 200.755
8/23/2021 2:15:00 AM 7.0475 153.3601
8/23/2021 2:30:00 AM 7.043 136.6602
8/23/2021 2:45:00 AM 7.0392 129.4998
8/23/2021 3:00:00 AM 7.0328 92.9689
8/23/2021 3:15:00 AM 7.0325 77.6392
8/23/2021 3:30:00 AM 7.0296 71.0332
8/23/2021 3:45:00 AM 7.0262 65.1335
8/23/2021 4:00:00 AM 7.0223 57.9238
8/23/2021 4:15:00 AM 7.0167 53.4823
8/23/2021 4:30:00 AM 7.0117 49.8772
8/23/2021 4:45:00 AM 7.0017 52.4982
8/23/2021 5:00:00 AM 6.9953 40.7452
8/23/2021 5:15:00 AM 6.9904 25.3761
8/23/2021 5:30:00 AM 6.988 18.7402
8/23/2021 5:45:00 AM 6.9818 17.9
8/23/2021 6:00:00 AM 6.9819 16.755
8/23/2021 6:15:00 AM 6.9797 16.1783
8/23/2021 6:30:00 AM 6.9751 15.3127
8/23/2021 6:45:00 AM 6.9718 16.1605
8/23/2021 7:00:00 AM 6.9677 19.2121
8/23/2021 7:15:00 AM 6.9597 44.5946
8/23/2021 7:30:00 AM 6.9484 64.1543
8/23/2021 7:45:00 AM 6.9361 77.2007
8/23/2021 8:00:00 AM 6.9243 88.9984
8/23/2021 8:15:00 AM 6.913 94.6004
8/23/2021 8:30:00 AM 6.9037 100.0153
8/23/2021 8:45:00 AM 6.9006 101.3
8/23/2021 9:00:00 AM 6.8911 96.4355
8/23/2021 9:15:00 AM 6.8885 91.3187
8/23/2021 9:30:00 AM 6.8838 86.6514
8/23/2021 9:45:00 AM 6.8855 82.7123
8/23/2021 10:00:00 AM 6.8859 72.6999
8/23/2021 10:15:00 AM 6.8839 64.8992
8/23/2021 10:30:00 AM 6.8796 60.2352
8/23/2021 10:45:00 AM 6.8783 53.5312
8/23/2021 11:00:00 AM 6.8744 48.0707
8/23/2021 11:15:00 AM 6.8724 43.8001
8/23/2021 11:30:00 AM 6.87 40.9686
8/23/2021 11:45:00 AM 6.8698 39.4001
8/23/2021 12:00:00 PM 6.8611 27.3171
8/23/2021 12:15:00 PM 6.8571 22.6964
8/23/2021 12:30:00 PM 6.8528 24.1116
8/23/2021 12:45:00 PM 6.846 34.9485
8/23/2021 1:00:00 PM 6.8396 38.6598
8/23/2021 1:15:00 PM 6.8333 39.7991
8/23/2021 1:30:00 PM 6.8276 40.4639
8/23/2021 1:45:00 PM 6.8225 39.0419
8/23/2021 2:00:00 PM 6.8178 36.3349
8/23/2021 2:15:00 PM 6.8135 23.3221
8/23/2021 2:30:00 PM 6.8103 24.79
8/23/2021 2:45:00 PM 6.8056 21.9826
8/23/2021 3:00:00 PM 6.8013 20.4171
8/23/2021 3:15:00 PM 6.7989 21.2254
8/23/2021 3:30:00 PM 6.7947 24.1186
8/23/2021 3:45:00 PM 6.7879 42.1284
8/23/2021 4:00:00 PM 6.7841 34.4311
8/23/2021 4:15:00 PM 6.7855 36.2803
8/23/2021 4:30:00 PM 6.7826 38.127
8/23/2021 4:45:00 PM 6.778 37.729
8/23/2021 5:00:00 PM 6.7725 37.6727
8/23/2021 5:15:00 PM 6.7677 34.3124
8/23/2021 5:30:00 PM 6.7649 20.9059
8/23/2021 5:45:00 PM 6.7648 20.3
8/23/2021 6:00:00 PM 6.7665 19.8029
8/23/2021 6:15:00 PM 6.7686 19.5242
8/23/2021 6:30:00 PM 6.7726 19.0445
8/23/2021 6:45:00 PM 6.7794 17.8954
8/23/2021 7:00:00 PM 6.7841 16.8086
8/23/2021 7:15:00 PM 6.7872 16.1891
8/23/2021 7:30:00 PM 6.7914 15.6953
8/23/2021 7:45:00 PM 6.7955 14.7107
8/23/2021 8:00:00 PM 6.8017 13.8856
8/23/2021 8:15:00 PM 6.8068 13.6105
8/23/2021 8:30:00 PM 6.8109 12.6037
8/23/2021 8:45:00 PM 6.8124 12.7
8/23/2021 9:00:00 PM 6.8239 11.9207
8/23/2021 9:15:00 PM 6.8262 11.7824
8/23/2021 9:30:00 PM 6.8307 13.3837
8/23/2021 9:45:00 PM 6.8325 16.1472
8/23/2021 10:00:00 PM 6.8417 13.236
8/23/2021 10:15:00 PM 6.848 13.0879
8/23/2021 10:30:00 PM 6.8505 12.5113
8/23/2021 10:45:00 PM 6.855 12.6366
8/23/2021 11:00:00 PM 6.855 12.3041
8/23/2021 11:15:00 PM 6.8557 12.1112
8/23/2021 11:30:00 PM 6.8556 12.2223
8/23/2021 11:45:00 PM 6.8558 12.5
8/24/2021 12:00:00 AM 6.8553 11.985
8/24/2021 12:15:00 AM 6.8531 12.3654
8/24/2021 12:30:00 AM 6.8503 12.0727
8/24/2021 12:45:00 AM 6.8467 11.8389
8/24/2021 1:00:00 AM 6.8439 12.1448
8/24/2021 1:15:00 AM 6.8386 12.5705
8/24/2021 1:30:00 AM 6.8346 12.62
8/24/2021 1:45:00 AM 6.8302 13.15
8/24/2021 2:00:00 AM 6.8259 13.6369
8/24/2021 2:15:00 AM 6.8206 13.1037
8/24/2021 2:30:00 AM 6.8175 12.9761
8/24/2021 2:45:00 AM 6.818 12.9
8/24/2021 3:00:00 AM 6.8086 13.616
8/24/2021 3:15:00 AM 6.8056 13.8443
8/24/2021 3:30:00 AM 6.8019 13.4146
8/24/2021 3:45:00 AM 6.8 13.8373
8/24/2021 4:00:00 AM 6.7963 13.1268
8/24/2021 4:15:00 AM 6.7903 12.8788
8/24/2021 4:30:00 AM 6.7856 11.8986
8/24/2021 4:45:00 AM 6.7766 11.8555
8/24/2021 5:00:00 AM 6.7727 11.5381
8/24/2021 5:15:00 AM 6.7681 11.6446
8/24/2021 5:30:00 AM 6.7665 11.5911
8/24/2021 5:45:00 AM 6.769 11.6
8/24/2021 6:00:00 AM 6.7626 17.3645
8/24/2021 6:15:00 AM 6.7615 12.7648
8/24/2021 6:30:00 AM 6.7578 12.3453
8/24/2021 6:45:00 AM 6.7546 12.387
8/24/2021 7:00:00 AM 6.7532 12.3318
8/24/2021 7:15:00 AM 6.748 12.4847
8/24/2021 7:30:00 AM 6.7452 12.5596
8/24/2021 7:45:00 AM 6.7434 12.2808
8/24/2021 8:00:00 AM 6.7391 12.2854
8/24/2021 8:15:00 AM 6.7352 13.8102
8/24/2021 8:30:00 AM 6.7327 14.0717
8/24/2021 8:45:00 AM 6.7354 14.3
8/24/2021 9:00:00 AM 6.7248 14.7298
8/24/2021 9:15:00 AM 6.7212 14.8109
8/24/2021 9:30:00 AM 6.7194 14.787
8/24/2021 9:45:00 AM 6.7192 14.6121
8/24/2021 10:00:00 AM 6.7185 15.0333
8/24/2021 10:15:00 AM 6.7198 13.7802
8/24/2021 10:30:00 AM 6.7185 13.1606
8/24/2021 10:45:00 AM 6.7185 13.3647
8/24/2021 11:00:00 AM 6.7203 13.4795
8/24/2021 11:15:00 AM 6.7236 13.3319
8/24/2021 11:30:00 AM 6.727 12.927
8/24/2021 11:45:00 AM 6.7312 12.8
8/24/2021 12:00:00 PM 6.7345 12.3877
8/24/2021 12:15:00 PM 6.7379 12.4066
8/24/2021 12:30:00 PM 6.7392 12.5981
8/24/2021 12:45:00 PM 6.7398 12.5167
8/24/2021 1:00:00 PM 6.7429 11.9374
8/24/2021 1:15:00 PM 6.7433 11.48
8/24/2021 1:30:00 PM 6.7437 11.9008
8/24/2021 1:45:00 PM 6.7439 12.1734
8/24/2021 2:00:00 PM 6.7436 12.3186
8/24/2021 2:15:00 PM 6.7428 12.652
8/24/2021 2:30:00 PM 6.739 12.2924
8/24/2021 2:45:00 PM 6.7348 12.0322
8/24/2021 3:00:00 PM 6.7296 12.9482
8/24/2021 3:15:00 PM 6.7292 15.64
8/24/2021 3:30:00 PM 6.7236 14.8334
8/24/2021 3:45:00 PM 6.7176 14.1287
8/24/2021 4:00:00 PM 6.7137 14.0378
8/24/2021 4:15:00 PM 6.7102 14.5332
8/24/2021 4:30:00 PM 6.7065 14.5762
8/24/2021 4:45:00 PM 6.7027 14.4524
8/24/2021 5:00:00 PM 6.7001 14.0359
8/24/2021 5:15:00 PM 6.6963 14.4564
8/24/2021 5:30:00 PM 6.6958 14.0995
8/24/2021 5:45:00 PM 6.6976 14.1
8/24/2021 6:00:00 PM 6.6909 13.9252
8/24/2021 6:15:00 PM 6.6907 13.7636
8/24/2021 6:30:00 PM 6.6912 13.9404
8/24/2021 6:45:00 PM 6.6909 14.1715
8/24/2021 7:00:00 PM 6.6905 13.5339
8/24/2021 7:15:00 PM 6.691 12.9103
8/24/2021 7:30:00 PM 6.6913 12.6834
8/24/2021 7:45:00 PM 6.6909 12.3119
8/24/2021 8:00:00 PM 6.6915 11.923
8/24/2021 8:15:00 PM 6.691 12.0519
8/24/2021 8:30:00 PM 6.6901 11.7659
8/24/2021 8:45:00 PM 6.692 11.9
8/24/2021 9:00:00 PM 6.6905 11.8562
8/24/2021 9:15:00 PM 6.6902 11.7781
8/24/2021 9:30:00 PM 6.6908 11.5533
8/24/2021 9:45:00 PM 6.6905 11.5963
8/24/2021 10:00:00 PM 6.6907 11.5132
8/24/2021 10:15:00 PM 6.6908 11.5344
8/24/2021 10:30:00 PM 6.6877 11.1783
8/24/2021 10:45:00 PM 6.6859 11.1978
8/24/2021 11:00:00 PM 6.6858 11.0833
8/24/2021 11:15:00 PM 6.6855 10.6788
8/24/2021 11:30:00 PM 6.6855 10.6018
8/24/2021 11:45:00 PM 6.6836 11
8/25/2021 12:00:00 AM 6.6821 10.597
8/25/2021 12:15:00 AM 6.6813 10.6677
8/25/2021 12:30:00 AM 6.6813 10.7909
8/25/2021 12:45:00 AM 6.6812 10.7888
8/25/2021 1:00:00 AM 6.6809 10.6157
8/25/2021 1:15:00 AM 6.6815 10.5672
8/25/2021 1:30:00 AM 6.6815 10.5618
8/25/2021 1:45:00 AM 6.6813 10.6125
8/25/2021 2:00:00 AM 6.6816 10.5526
8/25/2021 2:15:00 AM 6.6818 10.4938
8/25/2021 2:30:00 AM 6.6815 10.3443
8/25/2021 2:45:00 AM 6.6864 10.3996
8/25/2021 3:00:00 AM 6.6855 10.6061
8/25/2021 3:15:00 AM 6.6859 10.4363
8/25/2021 3:30:00 AM 6.6865 10.3931
8/25/2021 3:45:00 AM 6.686 10.366
8/25/2021 4:00:00 AM 6.69 10.2858
8/25/2021 4:15:00 AM 6.6908 10.4024
8/25/2021 4:30:00 AM 6.6914 10.3142
8/25/2021 4:45:00 AM 6.6946 10.3544
8/25/2021 5:00:00 AM 6.6959 10.5981
8/25/2021 5:15:00 AM 6.6957 10.3091
8/25/2021 5:30:00 AM 6.6937 10.3837
8/25/2021 5:45:00 AM 6.6906 10.4
8/25/2021 6:00:00 AM 6.6851 9.5499
8/25/2021 6:15:00 AM 6.6863 9.8407
8/25/2021 6:30:00 AM 6.6901 10.2614
8/25/2021 6:45:00 AM 6.6907 10.4686
8/25/2021 7:00:00 AM 6.6904 10.5018
8/25/2021 7:15:00 AM 6.6913 10.3456
8/25/2021 7:30:00 AM 6.6958 10.0108
8/25/2021 7:45:00 AM 6.6956 10.3237
8/25/2021 8:00:00 AM 6.6955 10.0963
8/25/2021 8:15:00 AM 6.6991 9.25
8/25/2021 8:30:00 AM 6.7009 8.722
8/25/2021 8:45:00 AM 6.6976 8.3
8/25/2021 9:00:00 AM 6.7058 7.8301
8/25/2021 9:15:00 AM 6.7099 7.5782
8/25/2021 9:30:00 AM 6.7105 7.7283
8/25/2021 9:45:00 AM 6.7113 7.438
8/25/2021 10:00:00 AM 6.7134 7.0421
8/25/2021 10:15:00 AM 6.7147 6.8686
8/25/2021 10:30:00 AM 6.7169 7.0658
8/25/2021 10:45:00 AM 6.7198 7.3916
8/25/2021 11:00:00 AM 6.7229 6.7984
8/25/2021 11:15:00 AM 6.724 6.8823
8/25/2021 11:30:00 AM 6.724 7.5601
8/25/2021 11:45:00 AM 6.7214 7.2
8/25/2021 12:00:00 PM 6.7271 6.6119
8/25/2021 12:15:00 PM 6.7271 6.4932
8/25/2021 12:30:00 PM 6.7278 6.3578
8/25/2021 12:45:00 PM 6.7324 6.3949
8/25/2021 1:00:00 PM 6.7397 7.2281
8/25/2021 1:15:00 PM 6.7474 6.2905
8/25/2021 1:30:00 PM 6.7541 6.1887
8/25/2021 1:45:00 PM 6.7605 6.0921
8/25/2021 2:00:00 PM 6.7681 6.3387
8/25/2021 2:15:00 PM 6.7757 6.1103
8/25/2021 2:30:00 PM 6.7837 5.9335
8/25/2021 2:45:00 PM 6.7913 5.795
8/25/2021 3:00:00 PM 6.7987 5.6849
8/25/2021 3:15:00 PM 6.8079 5.7538
8/25/2021 3:30:00 PM 6.816 5.6124
8/25/2021 3:45:00 PM 6.8289 5.634
8/25/2021 4:00:00 PM 6.8412 7.404
8/25/2021 4:15:00 PM 6.8454 6.9372
8/25/2021 4:30:00 PM 6.8671 6.326
8/25/2021 4:45:00 PM 6.883 6.0448
8/25/2021 5:00:00 PM 6.8958 5.9325
8/25/2021 5:15:00 PM 6.9071 5.789
8/25/2021 5:30:00 PM 6.9195 5.8088
8/25/2021 5:45:00 PM 6.923 5.6998
8/25/2021 6:00:00 PM 6.9423 5.5613
8/25/2021 6:15:00 PM 6.9494 5.7901
8/25/2021 6:30:00 PM 6.9537 5.6542
8/25/2021 6:45:00 PM 6.958 5.5652
8/25/2021 7:00:00 PM 6.9617 5.5703
8/25/2021 7:15:00 PM 6.9652 5.595
8/25/2021 7:30:00 PM 6.9655 5.6098
8/25/2021 7:45:00 PM 6.9643 5.4965
8/25/2021 8:00:00 PM 6.961 5.4113
8/25/2021 8:15:00 PM 6.9612 5.6751
8/25/2021 8:30:00 PM 6.9564 5.6299
8/25/2021 8:45:00 PM 6.9538 5.6
8/25/2021 9:00:00 PM 6.9521 5.7398
8/25/2021 9:15:00 PM 6.9473 5.7295
8/25/2021 9:30:00 PM 6.9432 5.5711
8/25/2021 9:45:00 PM 6.9402 5.3923
8/25/2021 10:00:00 PM 6.9372 5.354
8/25/2021 10:15:00 PM 6.9333 5.3245
8/25/2021 10:30:00 PM 6.9274 5.299
8/25/2021 10:45:00 PM 6.9208 5.3891
8/25/2021 11:00:00 PM 6.9146 5.4072
8/25/2021 11:15:00 PM 6.9099 5.3407
8/25/2021 11:30:00 PM 6.9045 5.3764
8/25/2021 11:45:00 PM 6.9048 5.3
8/26/2021 12:00:00 AM 6.8943 5.3865
8/26/2021 12:15:00 AM 6.8882 5.3684
8/26/2021 12:30:00 AM 6.8833 5.3879
8/26/2021 12:45:00 AM 6.878 5.3799
8/26/2021 1:00:00 AM 6.8729 5.5183
8/26/2021 1:15:00 AM 6.8676 5.5954
8/26/2021 1:30:00 AM 6.8625 5.6303
8/26/2021 1:45:00 AM 6.8583 5.5317
8/26/2021 2:00:00 AM 6.8523 5.5685
8/26/2021 2:15:00 AM 6.8481 5.5152
8/26/2021 2:30:00 AM 6.8445 5.5286
8/26/2021 2:45:00 AM 6.8404 5.6
8/26/2021 3:00:00 AM 6.8372 5.6563
8/26/2021 3:15:00 AM 6.8352 5.6693
8/26/2021 3:30:00 AM 6.8308 5.5778
8/26/2021 3:45:00 AM 6.8303 5.6812
8/26/2021 4:00:00 AM 6.819 5.8573
8/26/2021 4:15:00 AM 6.815 5.4549
8/26/2021 4:30:00 AM 6.7971 5.3511
8/26/2021 4:45:00 AM 6.7938 5.4499
8/26/2021 5:00:00 AM 6.7905 5.4767
8/26/2021 5:15:00 AM 6.7925 5.421
8/26/2021 5:30:00 AM 6.7929 5.4504
8/26/2021 5:45:00 AM 6.79 5.5
8/26/2021 6:00:00 AM 6.7905 5.5017
8/26/2021 6:15:00 AM 6.7907 5.5518
8/26/2021 6:30:00 AM 6.7877 5.4779
8/26/2021 6:45:00 AM 6.7854 5.4802
8/26/2021 7:00:00 AM 6.784 5.4766
8/26/2021 7:15:00 AM 6.7822 5.4089
8/26/2021 7:30:00 AM 6.7847 5.3107
8/26/2021 7:45:00 AM 6.7871 5.2522
8/26/2021 8:00:00 AM 6.7867 5.2351
8/26/2021 8:15:00 AM 6.7879 5.1653
8/26/2021 8:30:00 AM 6.7918 5.2966
8/26/2021 8:45:00 AM 6.7928 5.4
8/26/2021 9:00:00 AM 6.7982 5.3089
8/26/2021 9:15:00 AM 6.8047 5.1209
8/26/2021 9:30:00 AM 6.8064 5.0125
8/26/2021 9:45:00 AM 6.815 4.878
8/26/2021 10:00:00 AM 6.823 4.8368
8/26/2021 10:15:00 AM 6.8274 4.6847
8/26/2021 10:30:00 AM 6.8352 4.6283
8/26/2021 10:45:00 AM 6.8399 4.6661
8/26/2021 11:00:00 AM 6.8431 4.6214
8/26/2021 11:15:00 AM 6.8478 4.6369
8/26/2021 11:30:00 AM 6.855 4.6258
8/26/2021 11:45:00 AM 6.8544 4.6
8/26/2021 12:00:00 PM 6.8658 4.6806
8/26/2021 12:15:00 PM 6.8702 4.8042
8/26/2021 12:30:00 PM 6.8742 4.6754
8/26/2021 12:45:00 PM 6.8802 4.5144
8/26/2021 1:00:00 PM 6.8866 4.4956
8/26/2021 1:15:00 PM 6.8954 4.4449
8/26/2021 1:30:00 PM 6.9081 4.4506
8/26/2021 1:45:00 PM 6.9207 4.4484
8/26/2021 2:00:00 PM 6.9224 4.3343
8/26/2021 2:15:00 PM 6.9276 4.7357
8/26/2021 2:30:00 PM 6.9351 4.6251
8/26/2021 2:45:00 PM 6.9425 4.5257
8/26/2021 3:00:00 PM 6.9546 4.4072
8/26/2021 3:15:00 PM 6.9659 4.2528
8/26/2021 3:30:00 PM 6.977 4.2519
8/26/2021 3:45:00 PM 6.9918 4.3806
8/26/2021 4:00:00 PM 7.0076 4.4013
8/26/2021 4:15:00 PM 7.0249 4.3615
8/26/2021 4:30:00 PM 7.0448 4.2827
8/26/2021 4:45:00 PM 7.0546 4.3127
8/26/2021 5:00:00 PM 7.0657 4.3478
8/26/2021 5:15:00 PM 7.0794 4.3785
8/26/2021 5:30:00 PM 7.0888 4.2984
8/26/2021 5:45:00 PM 7.0966 4.3
8/26/2021 6:00:00 PM 7.1041 4.6359
8/26/2021 6:15:00 PM 7.1125 4.4962
8/26/2021 6:30:00 PM 7.1177 4.6003
8/26/2021 6:45:00 PM 7.1209 4.821
8/26/2021 7:00:00 PM 7.1236 4.7518
8/26/2021 7:15:00 PM 7.1245 4.8201
8/26/2021 7:30:00 PM 7.1226 4.7713
8/26/2021 7:45:00 PM 7.1027 6.0852
8/26/2021 8:00:00 PM 7.1067 5.633
8/26/2021 8:15:00 PM 7.1184 5.1994
8/26/2021 8:30:00 PM 7.1234 5.223
8/26/2021 8:45:00 PM 7.1204 5.2
8/26/2021 9:00:00 PM 7.1144 4.9982
8/26/2021 9:15:00 PM 7.1096 4.9468
8/26/2021 9:30:00 PM 7.1032 4.8449
8/26/2021 9:45:00 PM 7.0956 4.9325
8/26/2021 10:00:00 PM 7.0882 4.9264
8/26/2021 10:15:00 PM 7.0791 4.8013
8/26/2021 10:30:00 PM 7.068 4.6582
8/26/2021 10:45:00 PM 7.0574 4.7952
8/26/2021 11:00:00 PM 7.047 4.7259
8/26/2021 11:15:00 PM 7.0364 4.6966
8/26/2021 11:30:00 PM 7.0244 4.7413
8/26/2021 11:45:00 PM 7.021 4.7999
8/27/2021 12:00:00 AM 7.0028 4.6661
8/27/2021 12:15:00 AM 6.9941 4.5758
8/27/2021 12:30:00 AM 6.9822 5.2049
8/27/2021 12:45:00 AM 6.9704 5.1498
8/27/2021 1:00:00 AM 6.9576 4.8414
8/27/2021 1:15:00 AM 6.9456 4.7696
8/27/2021 1:30:00 AM 6.9354 4.7858
8/27/2021 1:45:00 AM 6.9263 4.8916
8/27/2021 2:00:00 AM 6.9157 4.8254
8/27/2021 2:15:00 AM 6.907 4.8171
8/27/2021 2:30:00 AM 6.8979 4.9783
8/27/2021 2:45:00 AM 6.8908 5.1001
8/27/2021 3:00:00 AM 6.8819 5.2458
8/27/2021 3:15:00 AM 6.8743 5.5083
8/27/2021 3:30:00 AM 6.868 5.3743
8/27/2021 3:45:00 AM 6.8622 5.4512
8/27/2021 4:00:00 AM 6.8566 5.5178
8/27/2021 4:15:00 AM 6.8544 5.4764
8/27/2021 4:30:00 AM 6.8501 5.2769
8/27/2021 4:45:00 AM 6.8473 5.4552
8/27/2021 5:00:00 AM 6.8444 5.5687
8/27/2021 5:15:00 AM 6.8353 5.5927
8/27/2021 5:30:00 AM 6.8226 5.4902
8/27/2021 5:45:00 AM 6.8152 5.5
8/27/2021 6:00:00 AM 6.8103 5.6564
8/27/2021 6:15:00 AM 6.8136 5.6521
8/27/2021 6:30:00 AM 6.8166 5.7793
8/27/2021 6:45:00 AM 6.8164 6.0773
8/27/2021 7:00:00 AM 6.8152 5.6717
8/27/2021 7:15:00 AM 6.8156 5.2912
8/27/2021 7:30:00 AM 6.8201 5.2611
8/27/2021 7:45:00 AM 6.8198 5.198
8/27/2021 8:00:00 AM 6.8239 4.6874
8/27/2021 8:15:00 AM 6.8278 4.6247
8/27/2021 8:30:00 AM 6.832 4.561
8/27/2021 8:45:00 AM 6.8348 4.5
8/27/2021 9:00:00 AM 6.8438 4.8026
8/27/2021 9:15:00 AM 6.8509 9.1148
8/27/2021 9:30:00 AM 6.8607 4.554
8/27/2021 9:45:00 AM 6.8678 4.4781
8/27/2021 10:00:00 AM 6.8758 4.5159
8/27/2021 10:15:00 AM 6.8854 4.4626
8/27/2021 10:30:00 AM 6.8951 4.4325
8/27/2021 10:45:00 AM 6.901 4.5589
8/27/2021 11:00:00 AM 6.9087 4.5225
8/27/2021 11:15:00 AM 6.9194 4.3985
8/27/2021 11:30:00 AM 6.9247 4.5738
8/27/2021 11:45:00 AM 6.9272 4.5
8/27/2021 12:00:00 PM 6.9398 5.05
8/27/2021 12:15:00 PM 6.9365 5.9216
8/27/2021 12:30:00 PM 6.9628 5.8089
8/27/2021 12:45:00 PM 6.9842 5.5825
8/27/2021 1:00:00 PM 7.0067 5.2845
8/27/2021 1:15:00 PM 7.0265 5.2985
8/27/2021 1:30:00 PM 7.0451 5.6144
8/27/2021 1:45:00 PM 7.0707 5.1585
8/27/2021 2:00:00 PM 7.0983 5.2674
8/27/2021 2:15:00 PM 7.1228 4.9843
8/27/2021 2:30:00 PM 7.1483 4.816
8/27/2021 2:45:00 PM 7.1737 4.7041
8/27/2021 3:00:00 PM 7.1976 4.5551
8/27/2021 3:15:00 PM 7.2288 4.4712
8/27/2021 3:30:00 PM 7.2609 4.3848
8/27/2021 3:45:00 PM 7.2925 4.3155
8/27/2021 4:00:00 PM 7.3171 4.3188
8/27/2021 4:15:00 PM 7.342 4.3872
8/27/2021 4:30:00 PM 7.371 4.2009
8/27/2021 4:45:00 PM 7.3967 4.3556
8/27/2021 5:00:00 PM 7.4172 4.2332
8/27/2021 5:15:00 PM 7.432 4.3461
8/27/2021 5:30:00 PM 7.4367 4.3064
8/27/2021 5:45:00 PM 7.434 4.2
8/27/2021 6:00:00 PM 7.4257 4.1925
8/27/2021 6:15:00 PM 7.4242 4.157
8/27/2021 6:30:00 PM 7.4243 4.1803
8/27/2021 6:45:00 PM 7.4269 4.0159
8/27/2021 7:00:00 PM 7.4234 4.0515
8/27/2021 7:15:00 PM 7.4161 4.0745
8/27/2021 7:30:00 PM 7.4083 4.0343
8/27/2021 7:45:00 PM 7.3985 4.0616
8/27/2021 8:00:00 PM 7.3846 4.3075
8/27/2021 8:15:00 PM 7.368 4.3572
8/27/2021 8:30:00 PM 7.3496 4.4749
8/27/2021 8:45:00 PM 7.3444 4.7
8/27/2021 9:00:00 PM 7.3168 4.7997
8/27/2021 9:15:00 PM 7.2991 4.8854
8/27/2021 9:30:00 PM 7.279 5.1533
8/27/2021 9:45:00 PM 7.2571 5.7791
8/27/2021 10:00:00 PM 7.2334 6.2326
8/27/2021 10:15:00 PM 7.2109 6.0884
8/27/2021 10:30:00 PM 7.1921 6.0468
8/27/2021 10:45:00 PM 7.1741 13.2971
8/27/2021 11:00:00 PM 7.1409 65.5873
8/27/2021 11:15:00 PM 7.1098 67.277
8/27/2021 11:30:00 PM 7.0874 71.6275
8/27/2021 11:45:00 PM 7.0784 98.1998
8/28/2021 12:00:00 AM 7.0054 158.841
8/28/2021 12:15:00 AM 6.9734 156.2844
8/28/2021 12:30:00 AM 6.9488 156.4717
8/28/2021 12:45:00 AM 6.9319 143.0706
8/28/2021 1:00:00 AM 6.9174 135.4612
8/28/2021 1:15:00 AM 6.9066 123.2043
8/28/2021 1:30:00 AM 6.8958 118.8671
8/28/2021 1:45:00 AM 6.89 88.9822
8/28/2021 2:00:00 AM 6.8841 75.4875
8/28/2021 2:15:00 AM 6.8787 77.9968
8/28/2021 2:30:00 AM 6.8725 74.457
8/28/2021 2:45:00 AM 6.867 75.2
8/28/2021 3:00:00 AM 6.8466 74.9453
8/28/2021 3:15:00 AM 6.8295 67.75
8/28/2021 3:30:00 AM 6.8216 21.3444
8/28/2021 3:45:00 AM 6.8173 19.062
8/28/2021 4:00:00 AM 6.8151 15.2245
8/28/2021 4:15:00 AM 6.8104 13.6688
8/28/2021 4:30:00 AM 6.8075 15.1467
8/28/2021 4:45:00 AM 6.7995 14.7528
8/28/2021 5:00:00 AM 6.7943 13.164
8/28/2021 5:15:00 AM 6.7906 11.863
8/28/2021 5:30:00 AM 6.7917 11.0919
8/28/2021 5:45:00 AM 6.7886 11.2
8/28/2021 6:00:00 AM 6.7963 10.9651
8/28/2021 6:15:00 AM 6.791 10.6258
8/28/2021 6:30:00 AM 6.7935 10.4728
8/28/2021 6:45:00 AM 6.799 9.7964
8/28/2021 7:00:00 AM 6.8099 9.2899
8/28/2021 7:15:00 AM 6.8152 9.1745
8/28/2021 7:30:00 AM 6.812 9.6386
8/28/2021 7:45:00 AM 6.8103 10.4987
8/28/2021 8:00:00 AM 6.8061 12.367
8/28/2021 8:15:00 AM 6.7982 14.723
8/28/2021 8:30:00 AM 6.7915 18.3112
8/28/2021 8:45:00 AM 6.7886 20.7
8/28/2021 9:00:00 AM 6.7749 75.3944
8/28/2021 9:15:00 AM 6.7685 73.9827
8/28/2021 9:30:00 AM 6.767 76.0685
8/28/2021 9:45:00 AM 6.7631 77.3342
8/28/2021 10:00:00 AM 6.7607 78.1445
8/28/2021 10:15:00 AM 6.7622 103.1162
8/28/2021 10:30:00 AM 6.7575 131.3956
8/28/2021 10:45:00 AM 6.7532 137.0659
8/28/2021 11:00:00 AM 6.7491 148.3084
8/28/2021 11:15:00 AM 6.7425 156.3012
8/28/2021 11:30:00 AM 6.7355 174.0982
8/28/2021 11:45:00 AM 6.727 194.7998
8/28/2021 12:00:00 PM 6.7202 228.3388
8/28/2021 12:15:00 PM 6.7131 226.9884
8/28/2021 12:30:00 PM 6.7098 210.8009
8/28/2021 12:45:00 PM 6.7102 204.194
8/28/2021 1:00:00 PM 6.7095 203.1041
8/28/2021 1:15:00 PM 6.7054 196.8142
8/28/2021 1:30:00 PM 6.7072 180.1569
8/28/2021 1:45:00 PM 6.7068 167.581
8/28/2021 2:00:00 PM 6.7099 161.1063
8/28/2021 2:15:00 PM 6.7104 152.5779
8/28/2021 2:30:00 PM 6.7157 132.8605
8/28/2021 2:45:00 PM 6.7246 105.1788
8/28/2021 3:00:00 PM 6.7321 94.9752
8/28/2021 3:15:00 PM 6.7366 91.5332
8/28/2021 3:30:00 PM 6.7438 80.1644
8/28/2021 3:45:00 PM 6.7546 76.1236
8/28/2021 4:00:00 PM 6.7624 54.438
8/28/2021 4:15:00 PM 6.7728 20.2882
8/28/2021 4:30:00 PM 6.7845 18.1114
8/28/2021 4:45:00 PM 6.8003 16.5905
8/28/2021 5:00:00 PM 6.8138 16.3853
8/28/2021 5:15:00 PM 6.8225 16.0807
8/28/2021 5:30:00 PM 6.8311 15.5056
8/28/2021 5:45:00 PM 6.8362 15.3
8/28/2021 6:00:00 PM 6.8435 14.0539
8/28/2021 6:15:00 PM 6.8586 13.2087
8/28/2021 6:30:00 PM 6.8748 12.6668
8/28/2021 6:45:00 PM 6.8847 13.232
8/28/2021 7:00:00 PM 6.8786 20.9931
8/28/2021 7:15:00 PM 6.9107 11.8763
8/28/2021 7:30:00 PM 6.9426 10.4515
8/28/2021 7:45:00 PM 6.9616 10.9303
8/28/2021 8:00:00 PM 6.9704 10.6045
8/28/2021 8:15:00 PM 6.9745 10.198
8/28/2021 8:30:00 PM 6.9829 9.7163
8/28/2021 8:45:00 PM 6.9916 9.5
8/28/2021 9:00:00 PM 6.9889 9.432
8/28/2021 9:15:00 PM 6.9937 8.7782
8/28/2021 9:30:00 PM 6.9994 8.3971
8/28/2021 9:45:00 PM 7.0066 8.2658
8/28/2021 10:00:00 PM 7.0011 8.6003
8/28/2021 10:15:00 PM 6.988 8.8575
8/28/2021 10:30:00 PM 6.9906 8.2215
8/28/2021 10:45:00 PM 6.9876 8.3745
8/28/2021 11:00:00 PM 6.9849 8.0678
8/28/2021 11:15:00 PM 6.9864 7.5929
8/28/2021 11:30:00 PM 6.9825 8.1988
8/28/2021 11:45:00 PM 6.9762 8.8999
8/29/2021 12:00:00 AM 6.9702 8.0059
8/29/2021 12:15:00 AM 6.9667 8.1905
8/29/2021 12:30:00 AM 6.9611 7.45
8/29/2021 12:45:00 AM 6.9535 7.568
8/29/2021 1:00:00 AM 6.9468 7.934
8/29/2021 1:15:00 AM 6.9397 7.4117
8/29/2021 1:30:00 AM 6.9297 7.1268
8/29/2021 1:45:00 AM 6.923 7.1308
8/29/2021 2:00:00 AM 6.9151 7.2308
8/29/2021 2:15:00 AM 6.9083 7.1101
8/29/2021 2:30:00 AM 6.901 7.5427
8/29/2021 2:45:00 AM 6.8992 8.3
8/29/2021 3:00:00 AM 6.8903 7.0665
8/29/2021 3:15:00 AM 6.8836 7.4668
8/29/2021 3:30:00 AM 6.8756 8.0548
8/29/2021 3:45:00 AM 6.8693 8.09
8/29/2021 4:00:00 AM 6.8659 7.769
8/29/2021 4:15:00 AM 6.8573 7.7563
8/29/2021 4:30:00 AM 6.8524 7.3561
8/29/2021 4:45:00 AM 6.8385 7.2357
8/29/2021 5:00:00 AM 6.839 7.1462
8/29/2021 5:15:00 AM 6.8336 7.3735
8/29/2021 5:30:00 AM 6.8285 7.2309
8/29/2021 5:45:00 AM 6.8264 7.2
8/29/2021 6:00:00 AM 6.8201 7.5959
8/29/2021 6:15:00 AM 6.8214 7.7131
8/29/2021 6:30:00 AM 6.8308 8.0568
8/29/2021 6:45:00 AM 6.8389 7.6984
8/29/2021 7:00:00 AM 6.8392 7.3973
8/29/2021 7:15:00 AM 6.8398 6.7906
8/29/2021 7:30:00 AM 6.8411 6.6733
8/29/2021 7:45:00 AM 6.8434 6.6554
8/29/2021 8:00:00 AM 6.8547 6.2834
8/29/2021 8:15:00 AM 6.8655 6.2176
8/29/2021 8:30:00 AM 6.8651 6.2754
8/29/2021 8:45:00 AM 6.8656 6.3
8/29/2021 9:00:00 AM 6.8793 6.036
8/29/2021 9:15:00 AM 6.8855 6.057
8/29/2021 9:30:00 AM 6.8931 6.1062
8/29/2021 9:45:00 AM 6.9063 5.8886
8/29/2021 10:00:00 AM 6.9207 5.8416
8/29/2021 10:15:00 AM 6.9342 5.727
8/29/2021 10:30:00 AM 6.946 5.7836
8/29/2021 10:45:00 AM 6.9596 5.7446
8/29/2021 11:00:00 AM 6.9727 6.1913
8/29/2021 11:15:00 AM 6.9857 6.2293
8/29/2021 11:30:00 AM 7.0006 5.95
8/29/2021 11:45:00 AM 7.0084 5.9
8/29/2021 12:00:00 PM 7.0314 5.627
8/29/2021 12:15:00 PM 7.0479 5.7036
8/29/2021 12:30:00 PM 7.0617 5.6676
8/29/2021 12:45:00 PM 7.0737 5.4713
8/29/2021 1:00:00 PM 7.0901 5.2025
8/29/2021 1:15:00 PM 7.1049 5.2733
8/29/2021 1:30:00 PM 7.1178 5.1878
8/29/2021 1:45:00 PM 7.1338 5.2649
8/29/2021 2:00:00 PM 7.142 5.2059
8/29/2021 2:15:00 PM 7.1453 5.0755
8/29/2021 2:30:00 PM 7.1474 5.0109
8/29/2021 2:45:00 PM 7.1515 5.0369
8/29/2021 3:00:00 PM 7.1584 4.9353
8/29/2021 3:15:00 PM 7.1681 4.8939
8/29/2021 3:30:00 PM 7.1794 4.9414
8/29/2021 3:45:00 PM 7.1936 4.9389
8/29/2021 4:00:00 PM 7.2123 5.0362
8/29/2021 4:15:00 PM 7.2262 5.0668
8/29/2021 4:30:00 PM 7.2431 5.8547
8/29/2021 4:45:00 PM 7.2617 5.4545
8/29/2021 5:00:00 PM 7.2699 5.2109
8/29/2021 5:15:00 PM 7.2772 5.6066
8/29/2021 5:30:00 PM 7.2819 5.3936
8/29/2021 5:45:00 PM 7.2856 5.1001
8/29/2021 6:00:00 PM 7.2783 7.0578
8/29/2021 6:15:00 PM 7.2972 5.6279
8/29/2021 6:30:00 PM 7.3036 5.4587
8/29/2021 6:45:00 PM 7.3067 5.8081
8/29/2021 7:00:00 PM 7.3158 6.2342
8/29/2021 7:15:00 PM 7.3195 5.3407
8/29/2021 7:30:00 PM 7.3183 5.1053
8/29/2021 7:45:00 PM 7.3129 5.1859
8/29/2021 8:00:00 PM 7.3081 5.027
8/29/2021 8:15:00 PM 7.3085 5.0769
8/29/2021 8:30:00 PM 7.3046 5.2717
8/29/2021 8:45:00 PM 7.3024 5.4
8/29/2021 9:00:00 PM 7.2939 5.0693
8/29/2021 9:15:00 PM 7.2852 5.0187
8/29/2021 9:30:00 PM 7.2806 4.8992
8/29/2021 9:45:00 PM 7.2746 5.0411
8/29/2021 10:00:00 PM 7.2674 4.9565
8/29/2021 10:15:00 PM 7.2589 4.8427
8/29/2021 10:30:00 PM 7.2502 4.9542
8/29/2021 10:45:00 PM 7.2408 4.9313
8/29/2021 11:00:00 PM 7.2299 5.044
8/29/2021 11:15:00 PM 7.2201 4.9406
8/29/2021 11:30:00 PM 7.2093 4.9589
8/29/2021 11:45:00 PM 7.2016 5
8/30/2021 12:00:00 AM 7.1882 5.3273
8/30/2021 12:15:00 AM 7.1789 5.0836
8/30/2021 12:30:00 AM 7.1694 5.0768
8/30/2021 12:45:00 AM 7.1584 5.0592
8/30/2021 1:00:00 AM 7.1477 5.0747
8/30/2021 1:15:00 AM 7.1383 5.2177
8/30/2021 1:30:00 AM 7.1291 5.2571
8/30/2021 1:45:00 AM 7.1208 5.2384
8/30/2021 2:00:00 AM 7.1129 5.179
8/30/2021 2:15:00 AM 7.1036 5.3077
8/30/2021 2:30:00 AM 7.0935 5.2581
8/30/2021 2:45:00 AM 7.0896 5.0998
8/30/2021 3:00:00 AM 7.0798 5.2436
8/30/2021 3:15:00 AM 7.0729 5.3397
8/30/2021 3:30:00 AM 7.0654 5.4304
8/30/2021 3:45:00 AM 7.0595 5.4424
8/30/2021 4:00:00 AM 7.0527 5.2434
8/30/2021 4:15:00 AM 7.0278 5.4615
8/30/2021 4:30:00 AM 7.0071 5.1279
8/30/2021 4:45:00 AM 6.9999 5.0071
8/30/2021 5:00:00 AM 6.9988 4.8112
8/30/2021 5:15:00 AM 6.9974 4.8292
8/30/2021 5:30:00 AM 6.9951 4.9999
8/30/2021 5:45:00 AM 6.993 5.1
8/30/2021 6:00:00 AM 6.9883 5.1117
8/30/2021 6:15:00 AM 6.9869 5.1689
8/30/2021 6:30:00 AM 6.9835 5.1927
8/30/2021 6:45:00 AM 6.9801 5.5767
8/30/2021 7:00:00 AM 6.9753 5.6379
8/30/2021 7:15:00 AM 6.9757 5.2052
8/30/2021 7:30:00 AM 6.9788 4.9372
8/30/2021 7:45:00 AM 6.9799 4.8524
8/30/2021 8:00:00 AM 6.9798 5.2662
8/30/2021 8:15:00 AM 6.9799 5.9667
8/30/2021 8:30:00 AM 6.9798 5.1677
8/30/2021 8:45:00 AM 6.9804 5
8/30/2021 9:00:00 AM 6.9846 4.6764
8/30/2021 9:15:00 AM 6.9844 4.8153
8/30/2021 9:30:00 AM 6.9834 4.9246
8/30/2021 9:45:00 AM 6.9856 4.9226
8/30/2021 10:00:00 AM 6.9895 5.1282
8/30/2021 10:15:00 AM 6.9942 5.0306
8/30/2021 10:30:00 AM 7.0015 4.7762
8/30/2021 10:45:00 AM 7.0122 4.8393
8/30/2021 11:00:00 AM 7.0207 4.7952
8/30/2021 11:15:00 AM 7.0244 4.8831
8/30/2021 11:30:00 AM 7.028 4.9956
8/30/2021 11:45:00 AM 7.0266 5
8/30/2021 12:00:00 PM 7.0404 5.7482
8/30/2021 12:15:00 PM 7.0477 5.1011
8/30/2021 12:30:00 PM 7.0569 4.8994
8/30/2021 12:45:00 PM 7.0677 4.917
8/30/2021 1:00:00 PM 7.0792 4.8975
8/30/2021 1:15:00 PM 7.0955 4.9406
8/30/2021 1:30:00 PM 7.1185 4.9374
8/30/2021 1:45:00 PM 7.1309 5.1996
8/30/2021 2:00:00 PM 7.1308 5.4922
8/30/2021 2:15:00 PM 7.1251 5.2347
8/30/2021 2:30:00 PM 7.1285 5.0145
8/30/2021 2:45:00 PM 7.1488 4.908
8/30/2021 3:00:00 PM 7.154 4.8279
8/30/2021 3:15:00 PM 7.1631 4.9101
8/30/2021 3:30:00 PM 7.1772 4.7964
8/30/2021 3:45:00 PM 7.2029 4.7406
8/30/2021 4:00:00 PM 7.2209 4.7829
8/30/2021 4:15:00 PM 7.2339 4.81
8/30/2021 4:30:00 PM 7.251 4.7534
8/30/2021 4:45:00 PM 7.2564 4.8379
8/30/2021 5:00:00 PM 7.262 5.4269
8/30/2021 5:15:00 PM 7.2374 6.6861
8/30/2021 5:30:00 PM 7.242 6.0267
8/30/2021 5:45:00 PM 7.2464 6.1
8/30/2021 6:00:00 PM 7.2512 5.4788
8/30/2021 6:15:00 PM 7.2508 5.4897
8/30/2021 6:30:00 PM 7.2505 5.3828
8/30/2021 6:45:00 PM 7.2432 5.3693
8/30/2021 7:00:00 PM 7.2308 5.3339
8/30/2021 7:15:00 PM 7.2177 5.3957
8/30/2021 7:30:00 PM 7.2049 5.2556
8/30/2021 7:45:00 PM 7.1912 5.4226
8/30/2021 8:00:00 PM 7.1751 5.3817
8/30/2021 8:15:00 PM 7.1587 5.5385
8/30/2021 8:30:00 PM 7.1436 5.5802
8/30/2021 8:45:00 PM 7.1344 5.6
8/30/2021 9:00:00 PM 7.1153 5.6795
8/30/2021 9:15:00 PM 7.0997 5.6804
8/30/2021 9:30:00 PM 7.0844 5.629
8/30/2021 9:45:00 PM 7.0707 5.5276
8/30/2021 10:00:00 PM 7.0579 5.5085
8/30/2021 10:15:00 PM 7.0413 5.7366
8/30/2021 10:30:00 PM 7.0263 5.8
8/30/2021 10:45:00 PM 7.0111 5.9282
8/30/2021 11:00:00 PM 6.9962 6.2624
8/30/2021 11:15:00 PM 6.9782 6.0203
8/30/2021 11:30:00 PM 6.9617 6.0596
8/30/2021 11:45:00 PM 6.9482 5.8
8/31/2021 12:00:00 AM 6.9338 5.8558
8/31/2021 12:15:00 AM 6.9208 6.0178
8/31/2021 12:30:00 AM 6.9052 5.9087
8/31/2021 12:45:00 AM 6.8925 5.9106
8/31/2021 1:00:00 AM 6.8799 5.8905
8/31/2021 1:15:00 AM 6.8664 5.9179
8/31/2021 1:30:00 AM 6.8524 5.9939
8/31/2021 1:45:00 AM 6.8373 6.1534
8/31/2021 2:00:00 AM 6.824 6.0557
8/31/2021 2:15:00 AM 6.814 6.1394
8/31/2021 2:30:00 AM 6.8019 6.116
8/31/2021 2:45:00 AM 6.797 6.1
8/31/2021 3:00:00 AM 6.7792 6.1901
8/31/2021 3:15:00 AM 6.7664 6.199
8/31/2021 3:30:00 AM 6.7566 6.0696
8/31/2021 3:45:00 AM 6.7484 6.1127
8/31/2021 4:00:00 AM 6.7398 6.1614
8/31/2021 4:15:00 AM 6.7263 6.4698
8/31/2021 4:30:00 AM 6.7081 5.9508
8/31/2021 4:45:00 AM 6.7 5.7724
8/31/2021 5:00:00 AM 6.696 5.8216
8/31/2021 5:15:00 AM 6.6916 6.0523
8/31/2021 5:30:00 AM 6.6875 6.0191
8/31/2021 5:45:00 AM 6.6864 6
8/31/2021 6:00:00 AM 6.6802 6.3014
8/31/2021 6:15:00 AM 6.6754 6.4024
8/31/2021 6:30:00 AM 6.6706 6.3366
8/31/2021 6:45:00 AM 6.6679 6.2006
8/31/2021 7:00:00 AM 6.6661 6.0798
8/31/2021 7:15:00 AM 6.6661 5.9819
8/31/2021 7:30:00 AM 6.6637 6.0827
8/31/2021 7:45:00 AM 6.6611 6.1961
8/31/2021 8:00:00 AM 6.6611 6.2396
8/31/2021 8:15:00 AM 6.6626 6.2402
8/31/2021 8:30:00 AM 6.6634 6.5074
8/31/2021 8:45:00 AM 6.6598 6.7
8/31/2021 9:00:00 AM 6.6676 6.3469
8/31/2021 9:15:00 AM 6.6712 6.1775
8/31/2021 9:30:00 AM 6.6763 6.3942
8/31/2021 9:45:00 AM 6.6812 6.073
8/31/2021 10:00:00 AM 6.6838 6.0469
8/31/2021 10:15:00 AM 6.69 5.9719
8/31/2021 10:30:00 AM 6.6951 5.9789
8/31/2021 10:45:00 AM 6.6991 5.8794
8/31/2021 11:00:00 AM 6.7042 5.7963
8/31/2021 11:15:00 AM 6.708 5.8311
8/31/2021 11:30:00 AM 6.714 5.7404
8/31/2021 11:45:00 AM 6.7172 5.7
8/31/2021 12:00:00 PM 6.7263 5.7654
8/31/2021 12:15:00 PM 6.7344 5.798
8/31/2021 12:30:00 PM 6.7437 5.8563
8/31/2021 12:45:00 PM 6.7528 5.8821
8/31/2021 1:00:00 PM 6.7636 6.1575
8/31/2021 1:15:00 PM 6.7758 6.4673
8/31/2021 1:30:00 PM 6.7877 6.286
8/31/2021 1:45:00 PM 6.7992 6.3754
8/31/2021 2:00:00 PM 6.8119 6.239
8/31/2021 2:15:00 PM 6.8295 5.8671
8/31/2021 2:30:00 PM 6.8435 6.0051
8/31/2021 2:45:00 PM 6.8589 5.8878
8/31/2021 3:00:00 PM 6.8788 5.6427
8/31/2021 3:15:00 PM 6.9015 5.5539
8/31/2021 3:30:00 PM 6.927 5.5321
8/31/2021 3:45:00 PM 6.9523 5.6036
8/31/2021 4:00:00 PM 6.97 5.5428
8/31/2021 4:15:00 PM 6.9886 5.5763
8/31/2021 4:30:00 PM 7.0167 5.5125
8/31/2021 4:45:00 PM 7.039 5.4584
8/31/2021 5:00:00 PM 7.0672 5.3381
8/31/2021 5:15:00 PM 7.098 5.2739
8/31/2021 5:30:00 PM 7.1149 5.4931
8/31/2021 5:45:00 PM 7.126 5.5
8/31/2021 6:00:00 PM 7.1544 5.1626
8/31/2021 6:15:00 PM 7.1661 5.169
8/31/2021 6:30:00 PM 7.1697 5.329
8/31/2021 6:45:00 PM 7.1854 5.0328
8/31/2021 7:00:00 PM 7.1913 5.9907
8/31/2021 7:15:00 PM 7.1773 6.2914
8/31/2021 7:30:00 PM 7.1958 5.8317
8/31/2021 7:45:00 PM 7.2049 5.8236
8/31/2021 8:00:00 PM 7.2028 5.8088
8/31/2021 8:15:00 PM 7.2031 6.1701
8/31/2021 8:30:00 PM 7.2017 5.9835
8/31/2021 8:45:00 PM 7.203 5.9
8/31/2021 9:00:00 PM 7.1966 5.89
8/31/2021 9:15:00 PM 7.1925 5.793
8/31/2021 9:30:00 PM 7.1855 5.7267
8/31/2021 9:45:00 PM 7.1787 5.6358
8/31/2021 10:00:00 PM 7.171 5.5332
8/31/2021 10:15:00 PM 7.1604 5.7579
8/31/2021 10:30:00 PM 7.1482 5.6036
8/31/2021 10:45:00 PM 7.1352 5.7494
8/31/2021 11:00:00 PM 7.1223 5.6518
8/31/2021 11:15:00 PM 7.1107 5.6691
8/31/2021 11:30:00 PM 7.0988 5.7746
8/31/2021 11:45:00 PM 7.0924 5.7
9/1/2021 12:00:00 AM 7.0708 6.5832
9/1/2021 12:15:00 AM 7.0567 5.9869
9/1/2021 12:30:00 AM 7.0435 5.6671
9/1/2021 12:45:00 AM 7.0306 5.8137
9/1/2021 1:00:00 AM 7.0146 6.0522
9/1/2021 1:15:00 AM 7.0014 5.9642
9/1/2021 1:30:00 AM 6.9878 5.8213
9/1/2021 1:45:00 AM 6.975 5.8322
9/1/2021 2:00:00 AM 6.9627 5.5932
9/1/2021 2:15:00 AM 6.9498 5.6209
9/1/2021 2:30:00 AM 6.9382 5.6856
9/1/2021 2:45:00 AM 6.93 5.6999
9/1/2021 3:00:00 AM 6.9143 5.7606
9/1/2021 3:15:00 AM 6.9035 5.9683
9/1/2021 3:30:00 AM 6.8947 5.9078
9/1/2021 3:45:00 AM 6.8846 5.8892
9/1/2021 4:00:00 AM 6.8759 5.862
9/1/2021 4:15:00 AM 6.8662 5.9626
9/1/2021 4:30:00 AM 6.858 5.9706
9/1/2021 4:45:00 AM 6.8506 5.9306
9/1/2021 5:00:00 AM 6.8348 5.7462
9/1/2021 5:15:00 AM 6.8098 5.438
9/1/2021 5:30:00 AM 6.8007 5.3734
9/1/2021 5:45:00 AM 6.7984 5.3
9/1/2021 6:00:00 AM 6.7982 5.8853
9/1/2021 6:15:00 AM 6.7965 5.9222
9/1/2021 6:30:00 AM 6.7945 5.742
9/1/2021 6:45:00 AM 6.7941 5.628
9/1/2021 7:00:00 AM 6.7917 5.565
9/1/2021 7:15:00 AM 6.7916 5.7515
9/1/2021 7:30:00 AM 6.7893 5.4281
9/1/2021 7:45:00 AM 6.7905 5.1663
9/1/2021 8:00:00 AM 6.7915 5.0426
9/1/2021 8:15:00 AM 6.7915 5.2905
9/1/2021 8:30:00 AM 6.794 5.4386
9/1/2021 8:45:00 AM 6.7914 5.4
9/1/2021 9:00:00 AM 6.7985 5.3274
9/1/2021 9:15:00 AM 6.8003 5.5202
9/1/2021 9:30:00 AM 6.8107 5.4858
9/1/2021 9:45:00 AM 6.8151 5.2067
9/1/2021 10:00:00 AM 6.8202 5.1106
9/1/2021 10:15:00 AM 6.8276 5.2169
9/1/2021 10:30:00 AM 6.8341 5.1509
9/1/2021 10:45:00 AM 6.842 5.2207
9/1/2021 11:00:00 AM 6.8487 5.2132
9/1/2021 11:15:00 AM 6.855 5.2213
9/1/2021 11:30:00 AM 6.8614 5.1201
9/1/2021 11:45:00 AM 6.8656 5.2
9/1/2021 12:00:00 PM 6.8783 5.6493
9/1/2021 12:15:00 PM 6.886 5.6756
9/1/2021 12:30:00 PM 6.8931 6.091
9/1/2021 12:45:00 PM 6.9 6.4229
9/1/2021 1:00:00 PM 6.9081 5.0885
9/1/2021 1:15:00 PM 6.9179 4.8042
9/1/2021 1:30:00 PM 6.9292 4.9113
9/1/2021 1:45:00 PM 6.9386 5.0812
9/1/2021 2:00:00 PM 6.949 5.0423
9/1/2021 2:15:00 PM 6.9588 5.3296
9/1/2021 2:30:00 PM 6.9671 5.2001
9/1/2021 2:45:00 PM 6.9816 5.0685
9/1/2021 3:00:00 PM 6.9863 15.8193
9/1/2021 3:15:00 PM 6.9928 4.9168
9/1/2021 3:30:00 PM 7.0052 4.7768
9/1/2021 3:45:00 PM 7.0132 4.8212
9/1/2021 4:00:00 PM 7.0224 4.5707
9/1/2021 4:15:00 PM 7.0339 4.428
9/1/2021 4:30:00 PM 7.0427 4.4631
9/1/2021 4:45:00 PM 7.0513 4.4617
9/1/2021 5:00:00 PM 7.0577 4.4217
9/1/2021 5:15:00 PM 7.0624 4.4316
9/1/2021 5:30:00 PM 7.0669 4.5855
9/1/2021 5:45:00 PM 7.0728 4.7
9/1/2021 6:00:00 PM 7.0718 4.6448
9/1/2021 6:15:00 PM 7.0758 5.1363
9/1/2021 6:30:00 PM 7.0809 5.3272
9/1/2021 6:45:00 PM 7.0838 5.1513
9/1/2021 7:00:00 PM 7.0863 4.9195
9/1/2021 7:15:00 PM 7.0897 4.7257
9/1/2021 7:30:00 PM 7.0896 4.6064
9/1/2021 7:45:00 PM 7.0879 4.4651
9/1/2021 8:00:00 PM 7.0846 4.4273
9/1/2021 8:15:00 PM 7.0806 5.0083
9/1/2021 8:30:00 PM 7.0782 5.0418
9/1/2021 8:45:00 PM 7.0742 5
9/1/2021 9:00:00 PM 7.0727 4.996
9/1/2021 9:15:00 PM 7.0702 5.2246
9/1/2021 9:30:00 PM 7.0675 6.1598
9/1/2021 9:45:00 PM 7.0556 8.6847
9/1/2021 10:00:00 PM 7.0541 12.7216
9/1/2021 10:15:00 PM 7.0657 13.0656
9/1/2021 10:30:00 PM 7.0626 12.219
9/1/2021 10:45:00 PM 7.0586 12.3238
9/1/2021 11:00:00 PM 7.0524 11.5489
9/1/2021 11:15:00 PM 7.0446 10.8178
9/1/2021 11:30:00 PM 7.0387 10.4819
9/1/2021 11:45:00 PM 7.0364 10.4
9/2/2021 12:00:00 AM 7.03 9.7009
9/2/2021 12:15:00 AM 7.0242 10.278
9/2/2021 12:30:00 AM 7.0198 10.8521
9/2/2021 12:45:00 AM 7.0111 11.4022
9/2/2021 1:00:00 AM 7.0032 11.5747
9/2/2021 1:15:00 AM 6.9978 11.7643
9/2/2021 1:30:00 AM 6.9935 11.597
9/2/2021 1:45:00 AM 6.9894 11.0865
9/2/2021 2:00:00 AM 6.9841 10.8474
9/2/2021 2:15:00 AM 6.9791 10.7167
9/2/2021 2:30:00 AM 6.9739 10.4723
9/2/2021 2:45:00 AM 6.972 10.5
9/2/2021 3:00:00 AM 6.9388 10.2208
9/2/2021 3:15:00 AM 6.9184 9.45
9/2/2021 3:30:00 AM 6.9118 9.0358
9/2/2021 3:45:00 AM 6.9159 8.5874
9/2/2021 4:00:00 AM 6.9162 8.1448
9/2/2021 4:15:00 AM 6.9135 7.8941
9/2/2021 4:30:00 AM 6.9128 8.0698
9/2/2021 4:45:00 AM 6.9096 7.772
9/2/2021 5:00:00 AM 6.9078 7.7107
9/2/2021 5:15:00 AM 6.9073 7.7674
9/2/2021 5:30:00 AM 6.9045 7.4699
9/2/2021 5:45:00 AM 6.9048 7.5
9/2/2021 6:00:00 AM 6.9034 6.8952
9/2/2021 6:15:00 AM 6.8999 6.7865
9/2/2021 6:30:00 AM 6.9014 6.7708
9/2/2021 6:45:00 AM 6.8988 6.7947
9/2/2021 7:00:00 AM 6.8943 6.7252
9/2/2021 7:15:00 AM 6.8942 6.5803
9/2/2021 7:30:00 AM 6.8963 6.4898
9/2/2021 7:45:00 AM 6.898 6.5958
9/2/2021 8:00:00 AM 6.8948 6.7671
9/2/2021 8:15:00 AM 6.8926 6.6793
9/2/2021 8:30:00 AM 6.8942 6.6858
9/2/2021 8:45:00 AM 6.8936 6.8
9/2/2021 9:00:00 AM 6.8943 6.5804
9/2/2021 9:15:00 AM 6.8945 6.7361
9/2/2021 9:30:00 AM 6.8945 7.3892
9/2/2021 9:45:00 AM 6.8934 7.847
9/2/2021 10:00:00 AM 6.8935 8.0927
9/2/2021 10:15:00 AM 6.8935 7.9143
9/2/2021 10:30:00 AM 6.8967 7.8376
9/2/2021 10:45:00 AM 6.9024 7.9136
9/2/2021 11:00:00 AM 6.9112 7.7656
9/2/2021 11:15:00 AM 6.9184 7.6544
9/2/2021 11:30:00 AM 6.9247 7.8446
9/2/2021 11:45:00 AM 6.93 7.9
9/2/2021 12:00:00 PM 6.9371 7.8454
9/2/2021 12:15:00 PM 6.9435 7.741
9/2/2021 12:30:00 PM 6.9512 7.5582
9/2/2021 12:45:00 PM 6.9611 7.6403
9/2/2021 1:00:00 PM 6.9724 7.5689
9/2/2021 1:15:00 PM 6.9824 7.3395
9/2/2021 1:30:00 PM 6.9912 7.2222
9/2/2021 1:45:00 PM 7.0033 7.1943
9/2/2021 2:00:00 PM 7.0103 7.0849
9/2/2021 2:15:00 PM 7.0193 7.0556
9/2/2021 2:30:00 PM 7.0291 7.0038
9/2/2021 2:45:00 PM 7.035 6.9481
9/2/2021 3:00:00 PM 7.0411 6.8689
9/2/2021 3:15:00 PM 7.0467 6.8718
9/2/2021 3:30:00 PM 7.0559 6.7781
9/2/2021 3:45:00 PM 7.0637 6.741
9/2/2021 4:00:00 PM 7.0725 6.6184
9/2/2021 4:15:00 PM 7.0796 6.6545
9/2/2021 4:30:00 PM 7.0849 6.614
9/2/2021 4:45:00 PM 7.0955 6.5295
9/2/2021 5:00:00 PM 7.1026 6.4016
9/2/2021 5:15:00 PM 7.1115 6.3374
9/2/2021 5:30:00 PM 7.1232 6.2948
9/2/2021 5:45:00 PM 7.1288 6.3
9/2/2021 6:00:00 PM 7.1103 7.692
9/2/2021 6:15:00 PM 7.1405 6.8674
9/2/2021 6:30:00 PM 7.1597 6.8677
9/2/2021 6:45:00 PM 7.1681 6.7621
9/2/2021 7:00:00 PM 7.1742 6.4556
9/2/2021 7:15:00 PM 7.1776 6.6594
9/2/2021 7:30:00 PM 7.1812 6.4177
9/2/2021 7:45:00 PM 7.1804 6.6669
9/2/2021 8:00:00 PM 7.1767 6.398
9/2/2021 8:15:00 PM 7.1728 6.1525
9/2/2021 8:30:00 PM 7.1682 6.2212
9/2/2021 8:45:00 PM 7.1666 6.2
9/2/2021 9:00:00 PM 7.1594 6.2982
9/2/2021 9:15:00 PM 7.1557 6.2659
9/2/2021 9:30:00 PM 7.15 6.5321
9/2/2021 9:45:00 PM 7.1425 6.6765
9/2/2021 10:00:00 PM 7.1341 6.3079
9/2/2021 10:15:00 PM 7.127 6.3822
9/2/2021 10:30:00 PM 7.121 6.2456
9/2/2021 10:45:00 PM 7.1135 6.3838
9/2/2021 11:00:00 PM 7.1066 6.4156
9/2/2021 11:15:00 PM 7.0987 6.4383
9/2/2021 11:30:00 PM 7.0905 6.1847
9/2/2021 11:45:00 PM 7.0868 6.2
9/3/2021 12:00:00 AM 7.0761 6.0212
9/3/2021 12:15:00 AM 7.0694 6.125
9/3/2021 12:30:00 AM 7.0583 6.0499
9/3/2021 12:45:00 AM 7.0451 6.0046
9/3/2021 1:00:00 AM 7.0363 5.8559
9/3/2021 1:15:00 AM 7.0278 5.7285
9/3/2021 1:30:00 AM 7.0185 5.6667
9/3/2021 1:45:00 AM 7.0106 5.72
9/3/2021 2:00:00 AM 7.0014 5.7856
9/3/2021 2:15:00 AM 6.9951 5.7986
9/3/2021 2:30:00 AM 6.9898 5.6689
9/3/2021 2:45:00 AM 6.9846 5.7004
9/3/2021 3:00:00 AM 6.9773 5.6331
9/3/2021 3:15:00 AM 6.9688 5.7031
9/3/2021 3:30:00 AM 6.9638 5.9066
9/3/2021 3:45:00 AM 6.9364 5.9479
9/3/2021 4:00:00 AM 6.9189 5.6016
9/3/2021 4:15:00 AM 6.9071 5.5076
9/3/2021 4:30:00 AM 6.9067 5.3545
9/3/2021 4:45:00 AM 6.907 5.2313
9/3/2021 5:00:00 AM 6.9042 5.2229
9/3/2021 5:15:00 AM 6.9035 5.2103
9/3/2021 5:30:00 AM 6.902 5.2279
9/3/2021 5:45:00 AM 6.9048 5.2
9/3/2021 6:00:00 AM 6.8954 5.1628
9/3/2021 6:15:00 AM 6.8922 5.1904
9/3/2021 6:30:00 AM 6.8885 5.1605
9/3/2021 6:45:00 AM 6.8893 5.1843
9/3/2021 7:00:00 AM 6.8934 5.18
9/3/2021 7:15:00 AM 6.8942 5.3785
9/3/2021 7:30:00 AM 6.8913 4.9909
9/3/2021 7:45:00 AM 6.8891 5.0009
9/3/2021 8:00:00 AM 6.891 5.1205
9/3/2021 8:15:00 AM 6.8962 4.9721
9/3/2021 8:30:00 AM 6.8988 4.7712